Wetterdaten: Mittwoch, 29.03.2017
Datum Zeit Temp. A. Feuchte A. Luftdruck Regen Wind Richtung Richtung Sonnenschein ET UV Solar Taupunkt Windchill Windben Empfang
29.03.2017 00:01 9,0 C 75 % 1023,6 hPa 0,0 l/m 5,6 km/h (1 Bft) S-SW 208 0 min 0,000 mm 0,0 UV-I 0 W/m 4,8 C 9,0 C 8,0 km/h (2 Bft) 100,00 %
29.03.2017 00:02 9,0 C 75 % 1023,6 hPa 0,0 l/m 5,9 km/h (2 Bft) S-SW 208 0 min 0,000 mm 0,0 UV-I 0 W/m 4,8 C 9,0 C 6,4 km/h (2 Bft) 100,00 %
29.03.2017 00:04 8,9 C 75 % 1023,6 hPa 0,0 l/m 5,4 km/h (1 Bft) S-SW 208 0 min 0,000 mm 0,0 UV-I 0 W/m 4,7 C 8,9 C 6,4 km/h (2 Bft) 97,37 %
29.03.2017 00:06 8,9 C 76 % 1023,6 hPa 0,0 l/m 5,9 km/h (2 Bft) S-SW 205 0 min 0,000 mm 0,0 UV-I 0 W/m 4,9 C 8,9 C 8,0 km/h (2 Bft) 98,11 %
29.03.2017 00:08 8,8 C 76 % 1023,6 hPa 0,0 l/m 5,8 km/h (2 Bft) S-SW 205 0 min 0,000 mm 0,0 UV-I 0 W/m 4,8 C 8,8 C 9,7 km/h (2 Bft) 97,37 %
29.03.2017 00:10 8,8 C 76 % 1023,6 hPa 0,0 l/m 6,0 km/h (2 Bft) S-SW 196 0 min 0,000 mm 0,0 UV-I 0 W/m 4,8 C 8,8 C 8,0 km/h (2 Bft) 98,21 %
29.03.2017 00:12 8,8 C 76 % 1023,7 hPa 0,0 l/m 5,6 km/h (1 Bft) S-SW 199 0 min 0,000 mm 0,0 UV-I 0 W/m 4,8 C 8,8 C 8,0 km/h (2 Bft) 95,74 %
29.03.2017 00:14 8,8 C 76 % 1023,6 hPa 0,0 l/m 6,5 km/h (2 Bft) S-SW 199 0 min 0,000 mm 0,0 UV-I 0 W/m 4,8 C 8,7 C 8,0 km/h (2 Bft) 97,56 %
29.03.2017 00:16 8,8 C 76 % 1023,7 hPa 0,0 l/m 5,5 km/h (1 Bft) S-SW 198 0 min 0,000 mm 0,0 UV-I 0 W/m 4,8 C 8,8 C 9,7 km/h (2 Bft) 96,00 %
29.03.2017 00:18 8,8 C 76 % 1023,7 hPa 0,0 l/m 6,3 km/h (2 Bft) S-SW 200 0 min 0,000 mm 0,0 UV-I 0 W/m 4,8 C 8,8 C 8,0 km/h (2 Bft) 98,00 %
29.03.2017 00:20 8,8 C 76 % 1023,7 hPa 0,0 l/m 6,4 km/h (2 Bft) S-SW 201 0 min 0,000 mm 0,0 UV-I 0 W/m 4,8 C 8,8 C 9,7 km/h (2 Bft) 100,00 %
29.03.2017 00:22 8,8 C 76 % 1023,7 hPa 0,0 l/m 6,0 km/h (2 Bft) S-SW 202 0 min 0,000 mm 0,0 UV-I 0 W/m 4,8 C 8,8 C 8,0 km/h (2 Bft) 96,23 %
29.03.2017 00:24 8,8 C 76 % 1023,7 hPa 0,0 l/m 7,1 km/h (2 Bft) S-SW 211 0 min 0,000 mm 0,0 UV-I 0 W/m 4,8 C 8,3 C 9,7 km/h (2 Bft) 98,21 %
29.03.2017 00:26 8,7 C 76 % 1023,7 hPa 0,0 l/m 6,3 km/h (2 Bft) S-SW 211 0 min 0,000 mm 0,0 UV-I 0 W/m 4,7 C 8,7 C 8,0 km/h (2 Bft) 91,49 %
29.03.2017 00:28 8,7 C 76 % 1023,7 hPa 0,0 l/m 5,8 km/h (2 Bft) S-SW 211 0 min 0,000 mm 0,0 UV-I 0 W/m 4,7 C 8,7 C 8,0 km/h (2 Bft) 96,00 %
29.03.2017 00:30 8,7 C 76 % 1023,8 hPa 0,0 l/m 6,7 km/h (2 Bft) S-SW 198 0 min 0,000 mm 0,0 UV-I 0 W/m 4,7 C 8,5 C 9,7 km/h (2 Bft) 94,87 %
29.03.2017 00:32 8,6 C 76 % 1023,8 hPa 0,0 l/m 7,4 km/h (2 Bft) SW 214 0 min 0,000 mm 0,0 UV-I 0 W/m 4,6 C 7,8 C 9,7 km/h (2 Bft) 98,21 %
29.03.2017 00:34 8,6 C 77 % 1023,8 hPa 0,0 l/m 7,1 km/h (2 Bft) S-SW 205 0 min 0,000 mm 0,0 UV-I 0 W/m 4,8 C 8,1 C 9,7 km/h (2 Bft) 95,45 %
29.03.2017 00:36 8,5 C 77 % 1023,8 hPa 0,0 l/m 6,7 km/h (2 Bft) S-SW 213 0 min 0,000 mm 0,0 UV-I 0 W/m 4,7 C 8,3 C 9,7 km/h (2 Bft) 91,67 %
29.03.2017 00:38 8,5 C 77 % 1023,8 hPa 0,0 l/m 5,6 km/h (1 Bft) S-SW 213 0 min 0,000 mm 0,0 UV-I 0 W/m 4,7 C 8,5 C 8,0 km/h (2 Bft) 96,43 %
29.03.2017 00:40 8,5 C 77 % 1023,8 hPa 0,0 l/m 5,6 km/h (1 Bft) S-SW 213 0 min 0,000 mm 0,0 UV-I 0 W/m 4,7 C 8,5 C 8,0 km/h (2 Bft) 97,37 %
29.03.2017 00:42 8,5 C 77 % 1023,7 hPa 0,0 l/m 6,0 km/h (2 Bft) S-SW 196 0 min 0,000 mm 0,0 UV-I 0 W/m 4,7 C 8,5 C 9,7 km/h (2 Bft) 98,21 %
29.03.2017 00:44 8,4 C 77 % 1023,7 hPa 0,0 l/m 6,0 km/h (2 Bft) S-SW 198 0 min 0,000 mm 0,0 UV-I 0 W/m 4,6 C 8,4 C 8,0 km/h (2 Bft) 95,74 %
29.03.2017 00:46 8,4 C 77 % 1023,8 hPa 0,0 l/m 6,5 km/h (2 Bft) S-SW 203 0 min 0,000 mm 0,0 UV-I 0 W/m 4,6 C 8,3 C 8,0 km/h (2 Bft) 95,45 %
29.03.2017 00:48 8,4 C 77 % 1023,8 hPa 0,0 l/m 6,4 km/h (2 Bft) SW 214 0 min 0,000 mm 0,0 UV-I 0 W/m 4,6 C 8,4 C 8,0 km/h (2 Bft) 96,23 %
29.03.2017 00:50 8,4 C 77 % 1023,8 hPa 0,0 l/m 7,4 km/h (2 Bft) S-SW 208 0 min 0,000 mm 0,0 UV-I 0 W/m 4,6 C 7,6 C 9,7 km/h (2 Bft) 97,37 %
29.03.2017 00:52 8,3 C 77 % 1023,8 hPa 0,0 l/m 6,8 km/h (2 Bft) S-SW 209 0 min 0,000 mm 0,0 UV-I 0 W/m 4,5 C 8,0 C 9,7 km/h (2 Bft) 98,21 %
29.03.2017 00:54 8,3 C 78 % 1023,8 hPa 0,0 l/m 7,1 km/h (2 Bft) S-SW 205 0 min 0,000 mm 0,0 UV-I 0 W/m 4,7 C 7,8 C 9,7 km/h (2 Bft) 97,37 %
29.03.2017 00:56 8,2 C 78 % 1023,7 hPa 0,0 l/m 7,6 km/h (2 Bft) S-SW 206 0 min 0,000 mm 0,0 UV-I 0 W/m 4,6 C 7,3 C 11,3 km/h (2 Bft) 98,00 %
29.03.2017 00:58 8,2 C 78 % 1023,7 hPa 0,0 l/m 7,2 km/h (2 Bft) S-SW 201 0 min 0,000 mm 0,0 UV-I 0 W/m 4,6 C 7,6 C 9,7 km/h (2 Bft) 98,11 %
29.03.2017 01:00 8,2 C 78 % 1023,7 hPa 0,0 l/m 7,3 km/h (2 Bft) S-SW 213 0 min 0,025 mm 0,0 UV-I 0 W/m 4,6 C 7,5 C 9,7 km/h (2 Bft) 100,00 %
29.03.2017 01:02 8,2 C 78 % 1023,7 hPa 0,0 l/m 7,0 km/h (2 Bft) S-SW 210 0 min 0,000 mm 0,0 UV-I 0 W/m 4,6 C 7,7 C 9,7 km/h (2 Bft) 100,00 %
29.03.2017 01:04 8,2 C 78 % 1023,7 hPa 0,0 l/m 7,3 km/h (2 Bft) S-SW 210 0 min 0,000 mm 0,0 UV-I 0 W/m 4,6 C 7,5 C 9,7 km/h (2 Bft) 100,00 %
29.03.2017 01:06 8,1 C 78 % 1023,7 hPa 0,0 l/m 6,6 km/h (2 Bft) SW 214 0 min 0,000 mm 0,0 UV-I 0 W/m 4,5 C 8,0 C 9,7 km/h (2 Bft) 98,21 %
29.03.2017 01:08 8,1 C 78 % 1023,7 hPa 0,0 l/m 7,4 km/h (2 Bft) S-SW 207 0 min 0,000 mm 0,0 UV-I 0 W/m 4,5 C 7,3 C 9,7 km/h (2 Bft) 100,00 %
29.03.2017 01:10 8,1 C 78 % 1023,7 hPa 0,0 l/m 6,7 km/h (2 Bft) S-SW 210 0 min 0,000 mm 0,0 UV-I 0 W/m 4,5 C 7,9 C 8,0 km/h (2 Bft) 97,56 %
29.03.2017 01:12 8,0 C 78 % 1023,7 hPa 0,0 l/m 6,7 km/h (2 Bft) S-SW 210 0 min 0,000 mm 0,0 UV-I 0 W/m 4,4 C 7,8 C 9,7 km/h (2 Bft) 100,00 %
29.03.2017 01:14 8,0 C 78 % 1023,7 hPa 0,0 l/m 7,3 km/h (2 Bft) SW 217 0 min 0,000 mm 0,0 UV-I 0 W/m 4,4 C 7,3 C 9,7 km/h (2 Bft) 100,00 %
29.03.2017 01:16 7,9 C 78 % 1023,7 hPa 0,0 l/m 6,7 km/h (2 Bft) S-SW 212 0 min 0,000 mm 0,0 UV-I 0 W/m 4,3 C 7,7 C 9,7 km/h (2 Bft) 100,00 %
29.03.2017 01:18 7,8 C 78 % 1023,7 hPa 0,0 l/m 5,8 km/h (2 Bft) S 191 0 min 0,000 mm 0,0 UV-I 0 W/m 4,2 C 7,8 C 8,0 km/h (2 Bft) 100,00 %
29.03.2017 01:20 7,8 C 79 % 1023,7 hPa 0,0 l/m 5,8 km/h (2 Bft) S-SW 209 0 min 0,000 mm 0,0 UV-I 0 W/m 4,4 C 7,8 C 8,0 km/h (2 Bft) 100,00 %
29.03.2017 01:22 7,7 C 79 % 1023,8 hPa 0,0 l/m 6,6 km/h (2 Bft) S-SW 208 0 min 0,000 mm 0,0 UV-I 0 W/m 4,3 C 7,6 C 9,7 km/h (2 Bft) 100,00 %
29.03.2017 01:24 7,7 C 79 % 1023,8 hPa 0,0 l/m 7,1 km/h (2 Bft) SW 216 0 min 0,000 mm 0,0 UV-I 0 W/m 4,3 C 7,1 C 9,7 km/h (2 Bft) 100,00 %
29.03.2017 01:26 7,7 C 79 % 1023,7 hPa 0,0 l/m 7,4 km/h (2 Bft) S-SW 202 0 min 0,000 mm 0,0 UV-I 0 W/m 4,3 C 6,9 C 9,7 km/h (2 Bft) 100,00 %
29.03.2017 01:28 7,8 C 79 % 1023,8 hPa 0,0 l/m 8,8 km/h (2 Bft) S-SW 196 0 min 0,000 mm 0,0 UV-I 0 W/m 4,4 C 6,0 C 11,3 km/h (2 Bft) 98,11 %
29.03.2017 01:30 7,8 C 79 % 1023,8 hPa 0,0 l/m 8,5 km/h (2 Bft) S-SW 210 0 min 0,000 mm 0,0 UV-I 0 W/m 4,4 C 6,2 C 12,9 km/h (3 Bft) 100,00 %
29.03.2017 01:32 7,9 C 79 % 1023,8 hPa 0,0 l/m 9,6 km/h (2 Bft) S-SW 200 0 min 0,000 mm 0,0 UV-I 0 W/m 4,5 C 5,5 C 12,9 km/h (3 Bft) 100,00 %
29.03.2017 01:34 7,9 C 79 % 1023,8 hPa 0,0 l/m 6,6 km/h (2 Bft) S-SW 209 0 min 0,000 mm 0,0 UV-I 0 W/m 4,5 C 7,8 C 9,7 km/h (2 Bft) 97,37 %
29.03.2017 01:36 7,8 C 79 % 1023,8 hPa 0,0 l/m 6,0 km/h (2 Bft) S-SW 209 0 min 0,000 mm 0,0 UV-I 0 W/m 4,4 C 7,8 C 8,0 km/h (2 Bft) 100,00 %
29.03.2017 01:38 7,8 C 79 % 1023,8 hPa 0,0 l/m 7,6 km/h (2 Bft) SW 217 0 min 0,000 mm 0,0 UV-I 0 W/m 4,4 C 6,8 C 9,7 km/h (2 Bft) 100,00 %
29.03.2017 01:40 7,8 C 79 % 1023,8 hPa 0,0 l/m 6,5 km/h (2 Bft) S-SW 208 0 min 0,000 mm 0,0 UV-I 0 W/m 4,4 C 7,7 C 9,7 km/h (2 Bft) 100,00 %
29.03.2017 01:42 7,8 C 79 % 1023,8 hPa 0,0 l/m 7,8 km/h (2 Bft) S-SW 209 0 min 0,000 mm 0,0 UV-I 0 W/m 4,4 C 6,7 C 9,7 km/h (2 Bft) 100,00 %
29.03.2017 01:44 7,9 C 79 % 1023,8 hPa 0,0 l/m 6,5 km/h (2 Bft) SW 225 0 min 0,000 mm 0,0 UV-I 0 W/m 4,5 C 7,8 C 9,7 km/h (2 Bft) 97,56 %
29.03.2017 01:46 7,8 C 79 % 1023,8 hPa 0,0 l/m 7,3 km/h (2 Bft) SW 221 0 min 0,000 mm 0,0 UV-I 0 W/m 4,4 C 7,1 C 11,3 km/h (2 Bft) 98,11 %
29.03.2017 01:48 7,8 C 79 % 1023,8 hPa 0,0 l/m 6,5 km/h (2 Bft) S-SW 205 0 min 0,000 mm 0,0 UV-I 0 W/m 4,4 C 7,7 C 9,7 km/h (2 Bft) 100,00 %
29.03.2017 01:50 7,9 C 79 % 1023,8 hPa 0,0 l/m 7,5 km/h (2 Bft) S-SW 206 0 min 0,000 mm 0,0 UV-I 0 W/m 4,5 C 7,0 C 9,7 km/h (2 Bft) 97,62 %
29.03.2017 01:52 8,1 C 78 % 1023,8 hPa 0,0 l/m 7,6 km/h (2 Bft) S-SW 209 0 min 0,000 mm 0,0 UV-I 0 W/m 4,5 C 7,2 C 9,7 km/h (2 Bft) 98,18 %
29.03.2017 01:54 8,1 C 78 % 1023,8 hPa 0,0 l/m 7,7 km/h (2 Bft) S-SW 205 0 min 0,000 mm 0,0 UV-I 0 W/m 4,5 C 7,1 C 11,3 km/h (2 Bft) 100,00 %
29.03.2017 01:56 8,2 C 78 % 1023,8 hPa 0,0 l/m 7,3 km/h (2 Bft) S-SW 206 0 min 0,000 mm 0,0 UV-I 0 W/m 4,6 C 7,5 C 11,3 km/h (2 Bft) 100,00 %
29.03.2017 01:58 8,2 C 78 % 1023,8 hPa 0,0 l/m 7,0 km/h (2 Bft) SW 214 0 min 0,000 mm 0,0 UV-I 0 W/m 4,6 C 7,7 C 9,7 km/h (2 Bft) 95,74 %
29.03.2017 02:00 8,1 C 77 % 1023,8 hPa 0,0 l/m 6,4 km/h (2 Bft) SW 217 0 min 0,026 mm 0,0 UV-I 0 W/m 4,3 C 8,1 C 8,0 km/h (2 Bft) 97,87 %
29.03.2017 02:02 8,1 C 78 % 1023,8 hPa 0,0 l/m 6,4 km/h (2 Bft) S-SW 208 0 min 0,000 mm 0,0 UV-I 0 W/m 4,5 C 8,1 C 8,0 km/h (2 Bft) 97,56 %
29.03.2017 02:04 8,2 C 77 % 1023,8 hPa 0,0 l/m 6,3 km/h (2 Bft) SW 224 0 min 0,000 mm 0,0 UV-I 0 W/m 4,4 C 8,2 C 8,0 km/h (2 Bft) 98,00 %
29.03.2017 02:06 8,2 C 77 % 1023,8 hPa 0,0 l/m 5,9 km/h (2 Bft) SW 219 0 min 0,000 mm 0,0 UV-I 0 W/m 4,4 C 8,2 C 9,7 km/h (2 Bft) 97,73 %
29.03.2017 02:08 8,2 C 77 % 1023,8 hPa 0,0 l/m 4,7 km/h (1 Bft) SW 226 0 min 0,000 mm 0,0 UV-I 0 W/m 4,4 C 8,2 C 8,0 km/h (2 Bft) 98,00 %
29.03.2017 02:10 8,2 C 77 % 1023,9 hPa 0,0 l/m 5,4 km/h (1 Bft) SW 225 0 min 0,000 mm 0,0 UV-I 0 W/m 4,4 C 8,2 C 8,0 km/h (2 Bft) 98,11 %
29.03.2017 02:12 8,2 C 77 % 1023,9 hPa 0,0 l/m 5,6 km/h (1 Bft) SW 217 0 min 0,000 mm 0,0 UV-I 0 W/m 4,4 C 8,2 C 6,4 km/h (2 Bft) 100,00 %
29.03.2017 02:14 8,1 C 77 % 1023,9 hPa 0,0 l/m 5,6 km/h (1 Bft) SW 222 0 min 0,000 mm 0,0 UV-I 0 W/m 4,3 C 8,1 C 8,0 km/h (2 Bft) 98,11 %
29.03.2017 02:16 8,1 C 77 % 1023,9 hPa 0,0 l/m 5,3 km/h (1 Bft) SW 220 0 min 0,000 mm 0,0 UV-I 0 W/m 4,3 C 8,1 C 8,0 km/h (2 Bft) 94,74 %
29.03.2017 02:18 8,1 C 77 % 1023,9 hPa 0,0 l/m 4,4 km/h (1 Bft) SW 228 0 min 0,000 mm 0,0 UV-I 0 W/m 4,3 C 8,1 C 8,0 km/h (2 Bft) 100,00 %
29.03.2017 02:20 8,0 C 77 % 1023,9 hPa 0,0 l/m 4,3 km/h (1 Bft) SW 228 0 min 0,000 mm 0,0 UV-I 0 W/m 4,2 C 8,0 C 6,4 km/h (2 Bft) 100,00 %
29.03.2017 02:22 8,0 C 77 % 1023,9 hPa 0,0 l/m 4,2 km/h (1 Bft) SW 235 0 min 0,000 mm 0,0 UV-I 0 W/m 4,2 C 8,0 C 6,4 km/h (2 Bft) 100,00 %
29.03.2017 02:24 7,9 C 78 % 1023,9 hPa 0,0 l/m 4,0 km/h (1 Bft) SW 235 0 min 0,000 mm 0,0 UV-I 0 W/m 4,3 C 7,9 C 6,4 km/h (2 Bft) 97,87 %
29.03.2017 02:26 7,9 C 78 % 1023,9 hPa 0,0 l/m 5,2 km/h (1 Bft) SW 233 0 min 0,000 mm 0,0 UV-I 0 W/m 4,3 C 7,9 C 8,0 km/h (2 Bft) 98,11 %
29.03.2017 02:28 7,8 C 78 % 1023,9 hPa 0,0 l/m 4,8 km/h (1 Bft) SW 233 0 min 0,000 mm 0,0 UV-I 0 W/m 4,2 C 7,8 C 6,4 km/h (2 Bft) 100,00 %
29.03.2017 02:30 7,8 C 78 % 1023,9 hPa 0,0 l/m 4,3 km/h (1 Bft) SW 233 0 min 0,000 mm 0,0 UV-I 0 W/m 4,2 C 7,8 C 4,8 km/h (1 Bft) 100,00 %
29.03.2017 02:32 7,7 C 79 % 1023,9 hPa 0,0 l/m 5,2 km/h (1 Bft) SW 232 0 min 0,000 mm 0,0 UV-I 0 W/m 4,3 C 7,7 C 6,4 km/h (2 Bft) 100,00 %
29.03.2017 02:34 7,6 C 79 % 1023,9 hPa 0,0 l/m 5,6 km/h (1 Bft) SW 230 0 min 0,000 mm 0,0 UV-I 0 W/m 4,2 C 7,6 C 8,0 km/h (2 Bft) 97,62 %
29.03.2017 02:36 7,6 C 79 % 1023,9 hPa 0,0 l/m 5,9 km/h (2 Bft) SW 227 0 min 0,000 mm 0,0 UV-I 0 W/m 4,2 C 7,6 C 8,0 km/h (2 Bft) 98,00 %
29.03.2017 02:38 7,7 C 79 % 1023,8 hPa 0,0 l/m 5,5 km/h (1 Bft) SW 225 0 min 0,000 mm 0,0 UV-I 0 W/m 4,3 C 7,7 C 8,0 km/h (2 Bft) 97,37 %
29.03.2017 02:40 7,7 C 79 % 1023,8 hPa 0,0 l/m 5,5 km/h (1 Bft) SW 225 0 min 0,000 mm 0,0 UV-I 0 W/m 4,3 C 7,7 C 8,0 km/h (2 Bft) 98,39 %
29.03.2017 02:42 7,7 C 79 % 1023,9 hPa 0,0 l/m 4,8 km/h (1 Bft) SW 225 0 min 0,000 mm 0,0 UV-I 0 W/m 4,3 C 7,7 C 6,4 km/h (2 Bft) 97,37 %
29.03.2017 02:44 7,6 C 79 % 1023,9 hPa 0,0 l/m 4,2 km/h (1 Bft) SW 225 0 min 0,000 mm 0,0 UV-I 0 W/m 4,2 C 7,6 C 6,4 km/h (2 Bft) 98,00 %
29.03.2017 02:46 7,5 C 79 % 1023,8 hPa 0,0 l/m 3,7 km/h (1 Bft) SW 225 0 min 0,000 mm 0,0 UV-I 0 W/m 4,1 C 7,5 C 4,8 km/h (1 Bft) 96,23 %
29.03.2017 02:48 7,4 C 79 % 1023,9 hPa 0,0 l/m 4,1 km/h (1 Bft) SW 225 0 min 0,000 mm 0,0 UV-I 0 W/m 4,0 C 7,4 C 4,8 km/h (1 Bft) 100,00 %
29.03.2017 02:50 7,3 C 80 % 1023,9 hPa 0,0 l/m 3,1 km/h (1 Bft) SW 225 0 min 0,000 mm 0,0 UV-I 0 W/m 4,1 C 7,3 C 4,8 km/h (1 Bft) 96,61 %
29.03.2017 02:52 7,3 C 80 % 1023,9 hPa 0,0 l/m 3,9 km/h (1 Bft) SW 225 0 min 0,000 mm 0,0 UV-I 0 W/m 4,1 C 7,3 C 4,8 km/h (1 Bft) 96,23 %
29.03.2017 02:54 7,3 C 80 % 1023,9 hPa 0,0 l/m 3,0 km/h (1 Bft) SW 225 0 min 0,000 mm 0,0 UV-I 0 W/m 4,1 C 7,3 C 4,8 km/h (1 Bft) 97,14 %
29.03.2017 02:56 7,3 C 80 % 1023,9 hPa 0,0 l/m 3,9 km/h (1 Bft) SW 225 0 min 0,000 mm 0,0 UV-I 0 W/m 4,1 C 7,3 C 6,4 km/h (2 Bft) 98,11 %
29.03.2017 02:58 7,2 C 80 % 1023,9 hPa 0,0 l/m 3,5 km/h (1 Bft) SW 225 0 min 0,000 mm 0,0 UV-I 0 W/m 4,0 C 7,2 C 4,8 km/h (1 Bft) 95,12 %
29.03.2017 03:00 7,2 C 80 % 1023,9 hPa 0,0 l/m 3,4 km/h (1 Bft) SW 225 0 min 0,025 mm 0,0 UV-I 0 W/m 4,0 C 7,2 C 4,8 km/h (1 Bft) 98,31 %
29.03.2017 03:02 7,2 C 80 % 1023,9 hPa 0,0 l/m 2,5 km/h (1 Bft) SW 225 0 min 0,000 mm 0,0 UV-I 0 W/m 4,0 C 7,2 C 4,8 km/h (1 Bft) 93,18 %
29.03.2017 03:04 7,2 C 80 % 1023,9 hPa 0,0 l/m 2,2 km/h (1 Bft) SW 225 0 min 0,000 mm 0,0 UV-I 0 W/m 4,0 C 7,2 C 3,2 km/h (1 Bft) 95,12 %
29.03.2017 03:06 7,1 C 81 % 1023,9 hPa 0,0 l/m 2,6 km/h (1 Bft) SW 225 0 min 0,000 mm 0,0 UV-I 0 W/m 4,1 C 7,1 C 3,2 km/h (1 Bft) 98,11 %
29.03.2017 03:08 7,1 C 81 % 1023,9 hPa 0,0 l/m 0,7 km/h (0 Bft) SW 225 0 min 0,000 mm 0,0 UV-I 0 W/m 4,1 C 7,1 C 3,2 km/h (1 Bft) 97,87 %
29.03.2017 03:10 7,0 C 81 % 1024,0 hPa 0,0 l/m 0,0 km/h (0 Bft) SW 225 0 min 0,000 mm 0,0 UV-I 0 W/m 4,0 C 7,0 C 0,0 km/h (0 Bft) 97,73 %
29.03.2017 03:12 6,9 C 81 % 1023,9 hPa 0,0 l/m 0,1 km/h (0 Bft) SW 225 0 min 0,000 mm 0,0 UV-I 0 W/m 3,9 C 6,9 C 1,6 km/h (1 Bft) 97,87 %
29.03.2017 03:14 6,8 C 81 % 1023,9 hPa 0,0 l/m 0,0 km/h (0 Bft) SW 225 0 min 0,000 mm 0,0 UV-I 0 W/m 3,8 C 6,8 C 1,6 km/h (1 Bft) 98,00 %
29.03.2017 03:16 6,8 C 82 % 1023,9 hPa 0,0 l/m 1,1 km/h (1 Bft) SW 225 0 min 0,000 mm 0,0 UV-I 0 W/m 3,9 C 6,8 C 3,2 km/h (1 Bft) 97,44 %
29.03.2017 03:18 6,7 C 82 % 1023,9 hPa 0,0 l/m 1,6 km/h (1 Bft) SW 225 0 min 0,000 mm 0,0 UV-I 0 W/m 3,8 C 6,7 C 3,2 km/h (1 Bft) 100,00 %
29.03.2017 03:20 6,7 C 82 % 1023,9 hPa 0,0 l/m 2,7 km/h (1 Bft) SW 225 0 min 0,000 mm 0,0 UV-I 0 W/m 3,8 C 6,7 C 4,8 km/h (1 Bft) 100,00 %
29.03.2017 03:22 6,7 C 82 % 1023,9 hPa 0,0 l/m 3,5 km/h (1 Bft) SW 225 0 min 0,000 mm 0,0 UV-I 0 W/m 3,8 C 6,7 C 4,8 km/h (1 Bft) 100,00 %
29.03.2017 03:24 6,7 C 82 % 1023,8 hPa 0,0 l/m 3,4 km/h (1 Bft) SW 225 0 min 0,000 mm 0,0 UV-I 0 W/m 3,8 C 6,7 C 4,8 km/h (1 Bft) 100,00 %
29.03.2017 03:26 6,6 C 81 % 1023,8 hPa 0,0 l/m 3,9 km/h (1 Bft) S-SW 197 0 min 0,000 mm 0,0 UV-I 0 W/m 3,6 C 6,6 C 6,4 km/h (2 Bft) 100,00 %
29.03.2017 03:28 6,5 C 82 % 1023,8 hPa 0,0 l/m 3,6 km/h (1 Bft) S 190 0 min 0,000 mm 0,0 UV-I 0 W/m 3,7 C 6,5 C 6,4 km/h (2 Bft) 100,00 %
29.03.2017 03:30 6,4 C 82 % 1023,9 hPa 0,0 l/m 3,8 km/h (1 Bft) S 191 0 min 0,000 mm 0,0 UV-I 0 W/m 3,6 C 6,4 C 4,8 km/h (1 Bft) 98,21 %
29.03.2017 03:32 6,5 C 82 % 1023,9 hPa 0,0 l/m 3,1 km/h (1 Bft) S 191 0 min 0,000 mm 0,0 UV-I 0 W/m 3,7 C 6,5 C 4,8 km/h (1 Bft) 100,00 %
29.03.2017 03:34 6,4 C 82 % 1023,9 hPa 0,0 l/m 2,3 km/h (1 Bft) S 191 0 min 0,000 mm 0,0 UV-I 0 W/m 3,6 C 6,4 C 3,2 km/h (1 Bft) 98,00 %
29.03.2017 03:36 6,4 C 82 % 1023,9 hPa 0,0 l/m 1,1 km/h (1 Bft) S 191 0 min 0,000 mm 0,0 UV-I 0 W/m 3,6 C 6,4 C 3,2 km/h (1 Bft) 98,00 %
29.03.2017 03:38 6,3 C 82 % 1024,0 hPa 0,0 l/m 0,0 km/h (0 Bft) S 191 0 min 0,000 mm 0,0 UV-I 0 W/m 3,5 C 6,3 C 1,6 km/h (1 Bft) 97,87 %
29.03.2017 03:40 6,1 C 83 % 1024,0 hPa 0,0 l/m 0,3 km/h (0 Bft) S 191 0 min 0,000 mm 0,0 UV-I 0 W/m 3,4 C 6,1 C 1,6 km/h (1 Bft) 97,37 %
29.03.2017 03:42 5,9 C 84 % 1024,0 hPa 0,0 l/m 0,8 km/h (0 Bft) S 191 0 min 0,000 mm 0,0 UV-I 0 W/m 3,4 C 5,9 C 3,2 km/h (1 Bft) 100,00 %
29.03.2017 03:44 6,1 C 84 % 1024,0 hPa 0,0 l/m 1,1 km/h (1 Bft) S 191 0 min 0,000 mm 0,0 UV-I 0 W/m 3,6 C 6,1 C 1,6 km/h (1 Bft) 100,00 %
29.03.2017 03:46 6,2 C 84 % 1024,0 hPa 0,0 l/m 1,6 km/h (1 Bft) S 191 0 min 0,000 mm 0,0 UV-I 0 W/m 3,7 C 6,2 C 3,2 km/h (1 Bft) 97,87 %
29.03.2017 03:48 6,3 C 83 % 1024,0 hPa 0,0 l/m 1,1 km/h (1 Bft) S 191 0 min 0,000 mm 0,0 UV-I 0 W/m 3,6 C 6,3 C 3,2 km/h (1 Bft) 97,22 %
29.03.2017 03:50 6,3 C 83 % 1023,9 hPa 0,0 l/m 1,1 km/h (1 Bft) S 191 0 min 0,000 mm 0,0 UV-I 0 W/m 3,6 C 6,3 C 3,2 km/h (1 Bft) 96,00 %
29.03.2017 03:52 6,3 C 83 % 1024,0 hPa 0,0 l/m 1,1 km/h (1 Bft) S 191 0 min 0,000 mm 0,0 UV-I 0 W/m 3,6 C 6,3 C 1,6 km/h (1 Bft) 100,00 %
29.03.2017 03:54 6,3 C 83 % 1023,9 hPa 0,0 l/m 2,7 km/h (1 Bft) S 191 0 min 0,000 mm 0,0 UV-I 0 W/m 3,6 C 6,3 C 4,8 km/h (1 Bft) 100,00 %
29.03.2017 03:56 6,2 C 83 % 1023,9 hPa 0,0 l/m 3,2 km/h (1 Bft) S 191 0 min 0,000 mm 0,0 UV-I 0 W/m 3,5 C 6,2 C 6,4 km/h (2 Bft) 97,37 %
29.03.2017 03:58 6,3 C 83 % 1023,9 hPa 0,0 l/m 1,9 km/h (1 Bft) S 191 0 min 0,000 mm 0,0 UV-I 0 W/m 3,6 C 6,3 C 3,2 km/h (1 Bft) 100,00 %
29.03.2017 04:00 6,3 C 82 % 1024,0 hPa 0,0 l/m 1,5 km/h (1 Bft) S 191 0 min 0,000 mm 0,0 UV-I 0 W/m 3,5 C 6,3 C 3,2 km/h (1 Bft) 98,21 %
29.03.2017 04:04 6,3 C 82 % 1024,0 hPa 0,0 l/m 0,4 km/h (0 Bft) S 191 0 min 0,000 mm 0,0 UV-I 0 W/m 3,5 C 6,3 C 4,8 km/h (1 Bft) 96,88 %
29.03.2017 04:06 6,3 C 82 % 1024,0 hPa 0,0 l/m 2,7 km/h (1 Bft) S 191 0 min 0,000 mm 0,0 UV-I 0 W/m 3,5 C 6,3 C 4,8 km/h (1 Bft) 98,00 %
29.03.2017 04:08 6,3 C 82 % 1024,0 hPa 0,0 l/m 2,2 km/h (1 Bft) S 191 0 min 0,000 mm 0,0 UV-I 0 W/m 3,5 C 6,3 C 4,8 km/h (1 Bft) 93,62 %
29.03.2017 04:10 6,4 C 82 % 1024,1 hPa 0,0 l/m 2,2 km/h (1 Bft) S 191 0 min 0,000 mm 0,0 UV-I 0 W/m 3,6 C 6,4 C 3,2 km/h (1 Bft) 100,00 %
29.03.2017 04:12 6,4 C 82 % 1024,0 hPa 0,0 l/m 2,9 km/h (1 Bft) S 191 0 min 0,000 mm 0,0 UV-I 0 W/m 3,6 C 6,4 C 3,2 km/h (1 Bft) 92,00 %
29.03.2017 04:14 6,6 C 81 % 1024,0 hPa 0,0 l/m 2,5 km/h (1 Bft) S 191 0 min 0,000 mm 0,0 UV-I 0 W/m 3,6 C 6,6 C 4,8 km/h (1 Bft) 96,00 %
29.03.2017 04:16 6,6 C 81 % 1024,0 hPa 0,0 l/m 1,2 km/h (1 Bft) S 191 0 min 0,000 mm 0,0 UV-I 0 W/m 3,6 C 6,6 C 3,2 km/h (1 Bft) 97,73 %
29.03.2017 04:18 6,6 C 81 % 1024,0 hPa 0,0 l/m 1,2 km/h (1 Bft) S 191 0 min 0,000 mm 0,0 UV-I 0 W/m 3,6 C 6,6 C 3,2 km/h (1 Bft) 97,56 %
29.03.2017 04:20 6,4 C 81 % 1024,0 hPa 0,0 l/m 1,2 km/h (1 Bft) S 191 0 min 0,000 mm 0,0 UV-I 0 W/m 3,4 C 6,4 C 3,2 km/h (1 Bft) 95,74 %
29.03.2017 04:22 6,4 C 81 % 1023,9 hPa 0,0 l/m 2,1 km/h (1 Bft) S 190 0 min 0,000 mm 0,0 UV-I 0 W/m 3,4 C 6,4 C 4,8 km/h (1 Bft) 98,04 %
29.03.2017 04:24 6,4 C 81 % 1023,9 hPa 0,0 l/m 2,7 km/h (1 Bft) S 187 0 min 0,000 mm 0,0 UV-I 0 W/m 3,4 C 6,4 C 4,8 km/h (1 Bft) 98,00 %
29.03.2017 04:26 6,4 C 81 % 1023,9 hPa 0,0 l/m 2,2 km/h (1 Bft) S 187 0 min 0,000 mm 0,0 UV-I 0 W/m 3,4 C 6,4 C 4,8 km/h (1 Bft) 95,74 %
29.03.2017 04:28 6,4 C 81 % 1024,0 hPa 0,0 l/m 2,5 km/h (1 Bft) S 187 0 min 0,000 mm 0,0 UV-I 0 W/m 3,4 C 6,4 C 6,4 km/h (2 Bft) 97,37 %
29.03.2017 04:30 6,4 C 81 % 1024,0 hPa 0,0 l/m 2,7 km/h (1 Bft) S 187 0 min 0,000 mm 0,0 UV-I 0 W/m 3,4 C 6,4 C 4,8 km/h (1 Bft) 98,11 %
29.03.2017 04:32 6,4 C 81 % 1024,1 hPa 0,0 l/m 3,6 km/h (1 Bft) S 186 0 min 0,000 mm 0,0 UV-I 0 W/m 3,4 C 6,4 C 6,4 km/h (2 Bft) 97,44 %
29.03.2017 04:34 6,6 C 81 % 1024,1 hPa 0,0 l/m 3,0 km/h (1 Bft) S 186 0 min 0,000 mm 0,0 UV-I 0 W/m 3,6 C 6,6 C 4,8 km/h (1 Bft) 96,23 %
29.03.2017 04:36 6,6 C 81 % 1024,0 hPa 0,0 l/m 3,2 km/h (1 Bft) S 180 0 min 0,000 mm 0,0 UV-I 0 W/m 3,6 C 6,6 C 6,4 km/h (2 Bft) 98,00 %
29.03.2017 04:38 6,6 C 80 % 1024,0 hPa 0,0 l/m 2,6 km/h (1 Bft) S 178 0 min 0,000 mm 0,0 UV-I 0 W/m 3,4 C 6,6 C 4,8 km/h (1 Bft) 98,00 %
29.03.2017 04:40 6,6 C 80 % 1024,0 hPa 0,0 l/m 2,3 km/h (1 Bft) S 178 0 min 0,000 mm 0,0 UV-I 0 W/m 3,4 C 6,6 C 6,4 km/h (2 Bft) 97,56 %
29.03.2017 04:42 6,6 C 80 % 1024,1 hPa 0,0 l/m 1,8 km/h (1 Bft) S 181 0 min 0,000 mm 0,0 UV-I 0 W/m 3,4 C 6,6 C 6,4 km/h (2 Bft) 95,83 %
29.03.2017 04:44 6,7 C 80 % 1024,1 hPa 0,0 l/m 3,5 km/h (1 Bft) S 181 0 min 0,000 mm 0,0 UV-I 0 W/m 3,5 C 6,7 C 6,4 km/h (2 Bft) 97,37 %
29.03.2017 04:46 6,7 C 80 % 1024,1 hPa 0,0 l/m 1,7 km/h (1 Bft) S 181 0 min 0,000 mm 0,0 UV-I 0 W/m 3,5 C 6,7 C 4,8 km/h (1 Bft) 96,49 %
29.03.2017 04:48 6,7 C 80 % 1024,1 hPa 0,0 l/m 1,8 km/h (1 Bft) S 181 0 min 0,000 mm 0,0 UV-I 0 W/m 3,5 C 6,7 C 3,2 km/h (1 Bft) 97,87 %
29.03.2017 04:50 6,6 C 80 % 1024,1 hPa 0,0 l/m 3,9 km/h (1 Bft) S 181 0 min 0,000 mm 0,0 UV-I 0 W/m 3,4 C 6,6 C 6,4 km/h (2 Bft) 97,37 %
29.03.2017 04:52 6,6 C 80 % 1024,0 hPa 0,0 l/m 2,8 km/h (1 Bft) S 180 0 min 0,000 mm 0,0 UV-I 0 W/m 3,4 C 6,6 C 4,8 km/h (1 Bft) 96,23 %
29.03.2017 04:54 6,5 C 80 % 1024,0 hPa 0,0 l/m 1,4 km/h (1 Bft) S 180 0 min 0,000 mm 0,0 UV-I 0 W/m 3,3 C 6,5 C 3,2 km/h (1 Bft) 94,00 %
29.03.2017 04:56 6,6 C 80 % 1024,0 hPa 0,0 l/m 1,6 km/h (1 Bft) S 180 0 min 0,000 mm 0,0 UV-I 0 W/m 3,4 C 6,6 C 3,2 km/h (1 Bft) 94,00 %
29.03.2017 04:58 6,5 C 80 % 1024,0 hPa 0,0 l/m 2,3 km/h (1 Bft) S 180 0 min 0,000 mm 0,0 UV-I 0 W/m 3,3 C 6,5 C 4,8 km/h (1 Bft) 92,11 %
29.03.2017 05:00 6,5 C 81 % 1024,1 hPa 0,0 l/m 4,4 km/h (1 Bft) S 180 0 min 0,000 mm 0,0 UV-I 0 W/m 3,5 C 6,5 C 6,4 km/h (2 Bft) 96,23 %
29.03.2017 05:02 6,7 C 80 % 1024,1 hPa 0,0 l/m 3,8 km/h (1 Bft) S 181 0 min 0,000 mm 0,0 UV-I 0 W/m 3,5 C 6,7 C 4,8 km/h (1 Bft) 95,74 %
29.03.2017 05:04 6,7 C 80 % 1024,1 hPa 0,0 l/m 3,9 km/h (1 Bft) S 181 0 min 0,000 mm 0,0 UV-I 0 W/m 3,5 C 6,7 C 6,4 km/h (2 Bft) 93,18 %
29.03.2017 05:06 6,7 C 79 % 1024,1 hPa 0,0 l/m 3,2 km/h (1 Bft) S 181 0 min 0,000 mm 0,0 UV-I 0 W/m 3,3 C 6,7 C 4,8 km/h (1 Bft) 93,62 %
29.03.2017 05:08 6,7 C 80 % 1024,1 hPa 0,0 l/m 2,0 km/h (1 Bft) S 181 0 min 0,000 mm 0,0 UV-I 0 W/m 3,5 C 6,7 C 3,2 km/h (1 Bft) 94,00 %
29.03.2017 05:10 6,6 C 80 % 1024,1 hPa 0,0 l/m 2,0 km/h (1 Bft) S 181 0 min 0,000 mm 0,0 UV-I 0 W/m 3,4 C 6,6 C 4,8 km/h (1 Bft) 95,12 %
29.03.2017 05:12 6,4 C 80 % 1024,1 hPa 0,0 l/m 2,3 km/h (1 Bft) S 181 0 min 0,000 mm 0,0 UV-I 0 W/m 3,2 C 6,4 C 3,2 km/h (1 Bft) 94,34 %
29.03.2017 05:14 6,3 C 81 % 1024,0 hPa 0,0 l/m 2,4 km/h (1 Bft) S 180 0 min 0,000 mm 0,0 UV-I 0 W/m 3,3 C 6,3 C 4,8 km/h (1 Bft) 88,89 %
29.03.2017 05:16 6,3 C 80 % 1024,0 hPa 0,0 l/m 1,2 km/h (1 Bft) S 180 0 min 0,000 mm 0,0 UV-I 0 W/m 3,1 C 6,3 C 3,2 km/h (1 Bft) 97,06 %
29.03.2017 05:18 6,2 C 81 % 1024,1 hPa 0,0 l/m 3,1 km/h (1 Bft) S 180 0 min 0,000 mm 0,0 UV-I 0 W/m 3,2 C 6,2 C 4,8 km/h (1 Bft) 94,34 %
29.03.2017 05:20 6,2 C 81 % 1024,1 hPa 0,0 l/m 4,6 km/h (1 Bft) S 181 0 min 0,000 mm 0,0 UV-I 0 W/m 3,2 C 6,2 C 6,4 km/h (2 Bft) 94,00 %
29.03.2017 05:22 6,1 C 81 % 1024,1 hPa 0,0 l/m 4,0 km/h (1 Bft) S 181 0 min 0,000 mm 0,0 UV-I 0 W/m 3,1 C 6,1 C 6,4 km/h (2 Bft) 97,37 %
29.03.2017 05:24 6,1 C 81 % 1024,1 hPa 0,0 l/m 4,8 km/h (1 Bft) S 181 0 min 0,000 mm 0,0 UV-I 0 W/m 3,1 C 6,1 C 6,4 km/h (2 Bft) 95,74 %
29.03.2017 05:26 6,1 C 81 % 1024,1 hPa 0,0 l/m 2,8 km/h (1 Bft) S 181 0 min 0,000 mm 0,0 UV-I 0 W/m 3,1 C 6,1 C 4,8 km/h (1 Bft) 94,00 %
29.03.2017 05:28 6,1 C 81 % 1024,1 hPa 0,0 l/m 2,7 km/h (1 Bft) S 181 0 min 0,000 mm 0,0 UV-I 0 W/m 3,1 C 6,1 C 4,8 km/h (1 Bft) 96,23 %
29.03.2017 05:30 6,0 C 81 % 1024,1 hPa 0,0 l/m 4,5 km/h (1 Bft) S 181 0 min 0,000 mm 0,0 UV-I 0 W/m 3,0 C 6,0 C 6,4 km/h (2 Bft) 94,87 %
29.03.2017 05:32 5,9 C 82 % 1024,1 hPa 0,0 l/m 4,3 km/h (1 Bft) S 181 0 min 0,000 mm 0,0 UV-I 0 W/m 3,1 C 5,9 C 6,4 km/h (2 Bft) 100,00 %
29.03.2017 05:34 5,9 C 82 % 1024,1 hPa 0,0 l/m 3,2 km/h (1 Bft) S 181 0 min 0,000 mm 0,0 UV-I 0 W/m 3,1 C 5,9 C 6,4 km/h (2 Bft) 93,62 %
29.03.2017 05:36 5,9 C 82 % 1024,2 hPa 0,0 l/m 4,0 km/h (1 Bft) S 181 0 min 0,000 mm 0,0 UV-I 0 W/m 3,1 C 5,9 C 4,8 km/h (1 Bft) 100,00 %
29.03.2017 05:38 5,9 C 82 % 1024,2 hPa 0,0 l/m 3,7 km/h (1 Bft) S 181 0 min 0,000 mm 0,0 UV-I 0 W/m 3,1 C 5,9 C 4,8 km/h (1 Bft) 96,43 %
29.03.2017 05:40 5,9 C 82 % 1024,2 hPa 0,0 l/m 2,0 km/h (1 Bft) S 181 0 min 0,000 mm 0,0 UV-I 0 W/m 3,1 C 5,9 C 4,8 km/h (1 Bft) 100,00 %
29.03.2017 05:42 5,9 C 82 % 1024,2 hPa 0,0 l/m 2,3 km/h (1 Bft) S 181 0 min 0,000 mm 0,0 UV-I 0 W/m 3,1 C 5,9 C 3,2 km/h (1 Bft) 94,34 %
29.03.2017 05:44 6,0 C 82 % 1024,2 hPa 0,0 l/m 3,4 km/h (1 Bft) S 181 0 min 0,000 mm 0,0 UV-I 0 W/m 3,2 C 6,0 C 6,4 km/h (2 Bft) 94,00 %
29.03.2017 05:46 6,1 C 82 % 1024,2 hPa 0,0 l/m 4,7 km/h (1 Bft) S 181 0 min 0,000 mm 0,0 UV-I 0 W/m 3,3 C 6,1 C 6,4 km/h (2 Bft) 100,00 %
29.03.2017 05:48 6,1 C 82 % 1024,2 hPa 0,0 l/m 3,3 km/h (1 Bft) S 181 0 min 0,000 mm 0,0 UV-I 0 W/m 3,3 C 6,1 C 4,8 km/h (1 Bft) 98,00 %
29.03.2017 05:50 6,1 C 82 % 1024,2 hPa 0,0 l/m 2,7 km/h (1 Bft) S 181 0 min 0,000 mm 0,0 UV-I 0 W/m 3,3 C 6,1 C 4,8 km/h (1 Bft) 100,00 %
29.03.2017 05:52 6,1 C 81 % 1024,2 hPa 0,0 l/m 2,8 km/h (1 Bft) S 181 0 min 0,000 mm 0,0 UV-I 0 W/m 3,1 C 6,1 C 3,2 km/h (1 Bft) 92,45 %
29.03.2017 05:54 6,0 C 82 % 1024,2 hPa 0,0 l/m 2,7 km/h (1 Bft) S 182 0 min 0,000 mm 0,0 UV-I 0 W/m 3,2 C 6,0 C 4,8 km/h (1 Bft) 97,62 %
29.03.2017 05:56 6,1 C 82 % 1024,2 hPa 0,0 l/m 2,1 km/h (1 Bft) S 182 0 min 0,000 mm 0,0 UV-I 0 W/m 3,3 C 6,1 C 3,2 km/h (1 Bft) 97,37 %
29.03.2017 05:58 6,1 C 82 % 1024,2 hPa 0,0 l/m 1,9 km/h (1 Bft) S 182 0 min 0,000 mm 0,0 UV-I 0 W/m 3,3 C 6,1 C 3,2 km/h (1 Bft) 98,21 %
29.03.2017 06:00 6,2 C 81 % 1024,2 hPa 0,0 l/m 1,5 km/h (1 Bft) S 182 0 min 0,000 mm 0,0 UV-I 0 W/m 3,2 C 6,2 C 3,2 km/h (1 Bft) 100,00 %
29.03.2017 06:02 6,2 C 81 % 1024,1 hPa 0,0 l/m 1,5 km/h (1 Bft) S 182 0 min 0,000 mm 0,0 UV-I 0 W/m 3,2 C 6,2 C 3,2 km/h (1 Bft) 98,00 %
29.03.2017 06:04 6,3 C 81 % 1024,1 hPa 0,0 l/m 1,2 km/h (1 Bft) S 182 0 min 0,000 mm 0,0 UV-I 0 W/m 3,3 C 6,3 C 3,2 km/h (1 Bft) 98,00 %
29.03.2017 06:06 6,2 C 81 % 1024,2 hPa 0,0 l/m 1,8 km/h (1 Bft) S 182 0 min 0,000 mm 0,0 UV-I 0 W/m 3,2 C 6,2 C 3,2 km/h (1 Bft) 100,00 %
29.03.2017 06:08 6,2 C 81 % 1024,2 hPa 0,0 l/m 1,0 km/h (0 Bft) S 182 0 min 0,000 mm 0,0 UV-I 0 W/m 3,2 C 6,2 C 3,2 km/h (1 Bft) 96,23 %
29.03.2017 06:10 6,2 C 81 % 1024,2 hPa 0,0 l/m 0,0 km/h (0 Bft) S 182 0 min 0,000 mm 0,0 UV-I 0 W/m 3,2 C 6,2 C 1,6 km/h (1 Bft) 100,00 %
29.03.2017 06:12 6,1 C 81 % 1024,2 hPa 0,0 l/m 1,0 km/h (0 Bft) S 182 0 min 0,000 mm 0,0 UV-I 0 W/m 3,1 C 6,1 C 3,2 km/h (1 Bft) 97,56 %
29.03.2017 06:14 6,2 C 81 % 1024,3 hPa 0,0 l/m 1,6 km/h (1 Bft) S 182 0 min 0,000 mm 0,0 UV-I 0 W/m 3,2 C 6,2 C 4,8 km/h (1 Bft) 100,00 %
29.03.2017 06:16 6,1 C 81 % 1024,3 hPa 0,0 l/m 2,6 km/h (1 Bft) S 182 0 min 0,000 mm 0,0 UV-I 0 W/m 3,1 C 6,1 C 4,8 km/h (1 Bft) 97,37 %
29.03.2017 06:18 6,1 C 81 % 1024,3 hPa 0,0 l/m 3,3 km/h (1 Bft) S 182 0 min 0,000 mm 0,0 UV-I 0 W/m 3,1 C 6,1 C 4,8 km/h (1 Bft) 100,00 %
29.03.2017 06:20 6,0 C 82 % 1024,3 hPa 0,0 l/m 3,3 km/h (1 Bft) S 182 0 min 0,000 mm 0,0 UV-I 0 W/m 3,2 C 6,0 C 4,8 km/h (1 Bft) 98,00 %
29.03.2017 06:22 5,9 C 82 % 1024,4 hPa 0,0 l/m 3,0 km/h (1 Bft) S 182 0 min 0,000 mm 0,0 UV-I 0 W/m 3,1 C 5,9 C 4,8 km/h (1 Bft) 100,00 %
29.03.2017 06:24 5,8 C 82 % 1024,4 hPa 0,0 l/m 3,5 km/h (1 Bft) S 182 0 min 0,000 mm 0,0 UV-I 0 W/m 3,0 C 5,8 C 4,8 km/h (1 Bft) 96,23 %
29.03.2017 06:26 5,7 C 83 % 1024,4 hPa 0,0 l/m 2,5 km/h (1 Bft) S 182 0 min 0,000 mm 0,0 UV-I 0 W/m 3,0 C 5,7 C 4,8 km/h (1 Bft) 97,22 %
29.03.2017 06:28 5,6 C 83 % 1024,3 hPa 0,0 l/m 3,2 km/h (1 Bft) S 181 0 min 0,000 mm 0,0 UV-I 0 W/m 2,9 C 5,6 C 4,8 km/h (1 Bft) 95,08 %
29.03.2017 06:30 5,6 C 84 % 1024,3 hPa 0,0 l/m 2,9 km/h (1 Bft) S 178 0 min 0,000 mm 0,0 UV-I 0 W/m 3,1 C 5,6 C 4,8 km/h (1 Bft) 100,00 %
29.03.2017 06:32 5,7 C 84 % 1024,3 hPa 0,0 l/m 2,6 km/h (1 Bft) S 177 0 min 0,000 mm 0,0 UV-I 0 W/m 3,2 C 5,7 C 4,8 km/h (1 Bft) 98,00 %
29.03.2017 06:34 5,7 C 84 % 1024,4 hPa 0,0 l/m 1,9 km/h (1 Bft) S 177 0 min 0,000 mm 0,0 UV-I 0 W/m 3,2 C 5,7 C 3,2 km/h (1 Bft) 100,00 %
29.03.2017 06:36 5,8 C 84 % 1024,3 hPa 0,0 l/m 3,1 km/h (1 Bft) S 177 0 min 0,000 mm 0,0 UV-I 0 W/m 3,3 C 5,8 C 6,4 km/h (2 Bft) 93,62 %
29.03.2017 06:38 6,1 C 83 % 1024,3 hPa 0,0 l/m 3,3 km/h (1 Bft) S 177 0 min 0,000 mm 0,0 UV-I 5 W/m 3,4 C 6,1 C 6,4 km/h (2 Bft) 100,00 %
29.03.2017 06:40 6,2 C 83 % 1024,3 hPa 0,0 l/m 3,0 km/h (1 Bft) S 178 0 min 0,000 mm 0,0 UV-I 5 W/m 3,5 C 6,2 C 4,8 km/h (1 Bft) 97,14 %
29.03.2017 06:42 6,3 C 82 % 1024,3 hPa 0,0 l/m 3,1 km/h (1 Bft) S 178 0 min 0,000 mm 0,0 UV-I 5 W/m 3,5 C 6,3 C 6,4 km/h (2 Bft) 94,64 %
29.03.2017 06:44 6,5 C 81 % 1024,3 hPa 0,0 l/m 2,6 km/h (1 Bft) S 177 0 min 0,000 mm 0,0 UV-I 5 W/m 3,5 C 6,5 C 4,8 km/h (1 Bft) 98,11 %
29.03.2017 06:46 6,7 C 80 % 1024,3 hPa 0,0 l/m 3,2 km/h (1 Bft) S 174 0 min 0,000 mm 0,0 UV-I 5 W/m 3,5 C 6,7 C 4,8 km/h (1 Bft) 98,00 %
29.03.2017 06:48 6,9 C 79 % 1024,3 hPa 0,0 l/m 3,1 km/h (1 Bft) S 178 0 min 0,000 mm 0,0 UV-I 7 W/m 3,5 C 6,9 C 8,0 km/h (2 Bft) 92,68 %
29.03.2017 06:50 7,1 C 79 % 1024,3 hPa 0,0 l/m 3,3 km/h (1 Bft) S 178 0 min 0,000 mm 0,0 UV-I 7 W/m 3,7 C 7,1 C 6,4 km/h (2 Bft) 98,11 %
29.03.2017 06:52 7,2 C 78 % 1024,3 hPa 0,0 l/m 4,2 km/h (1 Bft) S 178 0 min 0,000 mm 0,0 UV-I 8 W/m 3,6 C 7,2 C 8,0 km/h (2 Bft) 97,73 %
29.03.2017 06:54 7,3 C 78 % 1024,4 hPa 0,0 l/m 3,8 km/h (1 Bft) S 180 0 min 0,000 mm 0,0 UV-I 9 W/m 3,7 C 7,3 C 6,4 km/h (2 Bft) 97,37 %
29.03.2017 06:56 7,2 C 78 % 1024,4 hPa 0,0 l/m 2,5 km/h (1 Bft) S 180 0 min 0,000 mm 0,0 UV-I 10 W/m 3,6 C 7,2 C 3,2 km/h (1 Bft) 100,00 %
29.03.2017 06:58 7,2 C 79 % 1024,4 hPa 0,0 l/m 4,2 km/h (1 Bft) S 180 2 min 0,000 mm 0,0 UV-I 11 W/m 3,8 C 7,2 C 4,8 km/h (1 Bft) 100,00 %
29.03.2017 07:00 7,1 C 79 % 1024,4 hPa 0,0 l/m 4,9 km/h (1 Bft) S 181 2 min 0,000 mm 0,0 UV-I 12 W/m 3,7 C 7,1 C 6,4 km/h (2 Bft) 98,00 %
29.03.2017 07:02 6,9 C 79 % 1024,4 hPa 0,0 l/m 3,7 km/h (1 Bft) S 181 0 min 0,000 mm 0,0 UV-I 14 W/m 3,5 C 6,9 C 4,8 km/h (1 Bft) 100,00 %
29.03.2017 07:04 6,8 C 80 % 1024,4 hPa 0,0 l/m 3,6 km/h (1 Bft) S 181 0 min 0,000 mm 0,0 UV-I 16 W/m 3,6 C 6,8 C 6,4 km/h (2 Bft) 93,18 %
29.03.2017 07:06 6,8 C 80 % 1024,4 hPa 0,0 l/m 3,9 km/h (1 Bft) S 181 0 min 0,000 mm 0,0 UV-I 18 W/m 3,6 C 6,8 C 4,8 km/h (1 Bft) 97,87 %
29.03.2017 07:08 6,9 C 80 % 1024,5 hPa 0,0 l/m 3,1 km/h (1 Bft) S 181 0 min 0,000 mm 0,0 UV-I 19 W/m 3,7 C 6,9 C 4,8 km/h (1 Bft) 97,22 %
29.03.2017 07:10 7,1 C 80 % 1024,6 hPa 0,0 l/m 3,7 km/h (1 Bft) SW 223 0 min 0,000 mm 0,0 UV-I 21 W/m 3,9 C 7,1 C 6,4 km/h (2 Bft) 93,18 %
29.03.2017 07:12 7,0 C 80 % 1024,7 hPa 0,0 l/m 3,4 km/h (1 Bft) SW 223 0 min 0,000 mm 0,0 UV-I 23 W/m 3,8 C 7,0 C 4,8 km/h (1 Bft) 92,86 %
29.03.2017 07:14 6,9 C 80 % 1024,7 hPa 0,0 l/m 4,1 km/h (1 Bft) SW 223 0 min 0,000 mm 0,0 UV-I 25 W/m 3,7 C 6,9 C 6,4 km/h (2 Bft) 95,12 %
29.03.2017 07:16 6,9 C 81 % 1024,6 hPa 0,0 l/m 3,5 km/h (1 Bft) SW 223 0 min 0,000 mm 0,0 UV-I 23 W/m 3,9 C 6,9 C 6,4 km/h (2 Bft) 94,00 %
29.03.2017 07:18 6,8 C 81 % 1024,7 hPa 0,0 l/m 2,4 km/h (1 Bft) SW 223 0 min 0,000 mm 0,0 UV-I 26 W/m 3,8 C 6,8 C 4,8 km/h (1 Bft) 92,00 %
29.03.2017 07:20 6,8 C 81 % 1024,7 hPa 0,0 l/m 3,5 km/h (1 Bft) SW 223 0 min 0,000 mm 0,0 UV-I 25 W/m 3,8 C 6,8 C 4,8 km/h (1 Bft) 97,87 %
29.03.2017 07:22 6,8 C 81 % 1024,7 hPa 0,0 l/m 2,3 km/h (1 Bft) SW 223 0 min 0,000 mm 0,0 UV-I 24 W/m 3,8 C 6,8 C 4,8 km/h (1 Bft) 97,73 %
29.03.2017 07:24 6,9 C 81 % 1024,7 hPa 0,0 l/m 2,0 km/h (1 Bft) SW 223 0 min 0,000 mm 0,0 UV-I 24 W/m 3,9 C 6,9 C 3,2 km/h (1 Bft) 90,57 %
29.03.2017 07:26 6,9 C 81 % 1024,7 hPa 0,0 l/m 2,6 km/h (1 Bft) SW 223 0 min 0,000 mm 0,0 UV-I 26 W/m 3,9 C 6,9 C 4,8 km/h (1 Bft) 95,12 %
29.03.2017 07:28 7,1 C 80 % 1024,8 hPa 0,0 l/m 4,3 km/h (1 Bft) SW 223 0 min 0,000 mm 0,0 UV-I 26 W/m 3,9 C 7,1 C 6,4 km/h (2 Bft) 98,21 %
29.03.2017 07:30 7,2 C 80 % 1024,8 hPa 0,0 l/m 4,3 km/h (1 Bft) SW 223 0 min 0,000 mm 0,0 UV-I 28 W/m 4,0 C 7,2 C 4,8 km/h (1 Bft) 92,11 %
29.03.2017 07:32 7,3 C 80 % 1024,8 hPa 0,0 l/m 3,0 km/h (1 Bft) SW 223 0 min 0,000 mm 0,0 UV-I 31 W/m 4,1 C 7,3 C 4,8 km/h (1 Bft) 96,00 %
29.03.2017 07:34 7,3 C 79 % 1024,8 hPa 0,0 l/m 1,9 km/h (1 Bft) SW 223 0 min 0,000 mm 0,0 UV-I 34 W/m 3,9 C 7,3 C 3,2 km/h (1 Bft) 96,23 %
29.03.2017 07:36 7,4 C 79 % 1024,8 hPa 0,0 l/m 2,6 km/h (1 Bft) SW 223 0 min 0,000 mm 0,0 UV-I 36 W/m 4,0 C 7,4 C 4,8 km/h (1 Bft) 95,45 %
29.03.2017 07:38 7,4 C 79 % 1024,8 hPa 0,0 l/m 3,1 km/h (1 Bft) SW 223 0 min 0,000 mm 0,0 UV-I 37 W/m 4,0 C 7,4 C 4,8 km/h (1 Bft) 96,00 %
29.03.2017 07:40 7,5 C 78 % 1024,8 hPa 0,0 l/m 1,0 km/h (0 Bft) SW 223 0 min 0,000 mm 0,0 UV-I 39 W/m 3,9 C 7,5 C 4,8 km/h (1 Bft) 95,12 %
29.03.2017 07:42 7,6 C 78 % 1024,8 hPa 0,0 l/m 2,5 km/h (1 Bft) SW 223 0 min 0,000 mm 0,0 UV-I 42 W/m 4,0 C 7,6 C 4,8 km/h (1 Bft) 95,45 %
29.03.2017 07:44 7,6 C 78 % 1024,8 hPa 0,0 l/m 0,7 km/h (0 Bft) SW 223 0 min 0,000 mm 0,0 UV-I 42 W/m 4,0 C 7,6 C 1,6 km/h (1 Bft) 96,23 %
29.03.2017 07:46 7,7 C 78 % 1024,8 hPa 0,0 l/m 0,7 km/h (0 Bft) SW 223 0 min 0,000 mm 0,0 UV-I 42 W/m 4,1 C 7,7 C 3,2 km/h (1 Bft) 97,87 %
29.03.2017 07:48 7,6 C 79 % 1024,8 hPa 0,0 l/m 1,5 km/h (1 Bft) SW 223 0 min 0,000 mm 0,0 UV-I 44 W/m 4,2 C 7,6 C 3,2 km/h (1 Bft) 100,00 %
29.03.2017 07:50 7,7 C 79 % 1024,9 hPa 0,0 l/m 1,9 km/h (1 Bft) SW 223 0 min 0,000 mm 0,0 UV-I 49 W/m 4,3 C 7,7 C 3,2 km/h (1 Bft) 98,11 %
29.03.2017 07:52 7,7 C 78 % 1024,9 hPa 0,0 l/m 3,1 km/h (1 Bft) SW 223 0 min 0,000 mm 0,0 UV-I 53 W/m 4,1 C 7,7 C 4,8 km/h (1 Bft) 100,00 %
29.03.2017 07:54 7,7 C 78 % 1024,9 hPa 0,0 l/m 2,7 km/h (1 Bft) SW 223 0 min 0,000 mm 0,0 UV-I 60 W/m 4,1 C 7,7 C 4,8 km/h (1 Bft) 97,37 %
29.03.2017 07:56 7,7 C 79 % 1024,9 hPa 0,0 l/m 3,5 km/h (1 Bft) SW 223 0 min 0,000 mm 0,0 UV-I 68 W/m 4,3 C 7,7 C 4,8 km/h (1 Bft) 100,00 %
29.03.2017 07:58 7,7 C 79 % 1025,0 hPa 0,0 l/m 2,6 km/h (1 Bft) SW 223 0 min 0,000 mm 0,0 UV-I 68 W/m 4,3 C 7,7 C 4,8 km/h (1 Bft) 100,00 %
29.03.2017 08:00 7,6 C 80 % 1024,9 hPa 0,0 l/m 2,8 km/h (1 Bft) SW 223 0 min 0,026 mm 0,0 UV-I 66 W/m 4,4 C 7,6 C 6,4 km/h (2 Bft) 96,23 %
29.03.2017 08:02 7,6 C 80 % 1025,0 hPa 0,0 l/m 4,5 km/h (1 Bft) SW 222 0 min 0,000 mm 0,0 UV-I 76 W/m 4,4 C 7,6 C 6,4 km/h (2 Bft) 98,00 %
29.03.2017 08:04 7,7 C 79 % 1024,9 hPa 0,0 l/m 4,3 km/h (1 Bft) S 175 0 min 0,000 mm 0,0 UV-I 91 W/m 4,3 C 7,7 C 8,0 km/h (2 Bft) 100,00 %
29.03.2017 08:06 7,8 C 79 % 1024,8 hPa 0,0 l/m 3,5 km/h (1 Bft) S 186 0 min 0,000 mm 0,0 UV-I 92 W/m 4,4 C 7,8 C 6,4 km/h (2 Bft) 98,00 %
29.03.2017 08:08 8,0 C 78 % 1024,8 hPa 0,0 l/m 3,6 km/h (1 Bft) S 175 0 min 0,000 mm 0,0 UV-I 77 W/m 4,4 C 8,0 C 6,4 km/h (2 Bft) 98,00 %
29.03.2017 08:10 8,1 C 78 % 1024,8 hPa 0,0 l/m 3,5 km/h (1 Bft) S 180 0 min 0,000 mm 0,0 UV-I 78 W/m 4,5 C 8,1 C 6,4 km/h (2 Bft) 100,00 %
29.03.2017 08:12 8,2 C 78 % 1024,8 hPa 0,0 l/m 2,8 km/h (1 Bft) S 180 0 min 0,000 mm 0,0 UV-I 69 W/m 4,6 C 8,2 C 4,8 km/h (1 Bft) 96,61 %
29.03.2017 08:14 8,3 C 77 % 1024,9 hPa 0,0 l/m 3,9 km/h (1 Bft) S 178 0 min 0,000 mm 0,0 UV-I 79 W/m 4,5 C 8,3 C 6,4 km/h (2 Bft) 97,37 %
29.03.2017 08:16 8,4 C 76 % 1024,8 hPa 0,0 l/m 3,2 km/h (1 Bft) S 188 0 min 0,000 mm 0,0 UV-I 89 W/m 4,4 C 8,4 C 8,0 km/h (2 Bft) 100,00 %
29.03.2017 08:18 8,5 C 76 % 1024,8 hPa 0,0 l/m 3,8 km/h (1 Bft) S 190 0 min 0,000 mm 0,0 UV-I 95 W/m 4,5 C 8,5 C 6,4 km/h (2 Bft) 94,34 %
29.03.2017 08:20 8,6 C 76 % 1024,8 hPa 0,0 l/m 4,1 km/h (1 Bft) S-SW 205 0 min 0,000 mm 0,0 UV-I 117 W/m 4,6 C 8,6 C 6,4 km/h (2 Bft) 97,87 %
29.03.2017 08:22 8,6 C 77 % 1025,0 hPa 0,0 l/m 4,8 km/h (1 Bft) W 271 2 min 0,000 mm 0,0 UV-I 152 W/m 4,8 C 8,6 C 9,7 km/h (2 Bft) 100,00 %
29.03.2017 08:24 8,5 C 78 % 1025,0 hPa 0,0 l/m 4,6 km/h (1 Bft) SW 226 2 min 0,000 mm 0,0 UV-I 148 W/m 4,9 C 8,5 C 6,4 km/h (2 Bft) 96,23 %
29.03.2017 08:26 8,4 C 78 % 1025,0 hPa 0,0 l/m 3,6 km/h (1 Bft) SW 226 2 min 0,000 mm 0,0 UV-I 161 W/m 4,8 C 8,4 C 4,8 km/h (1 Bft) 97,50 %
29.03.2017 08:28 8,4 C 79 % 1025,1 hPa 0,0 l/m 5,9 km/h (2 Bft) SW 225 2 min 0,000 mm 0,0 UV-I 176 W/m 5,0 C 8,4 C 9,7 km/h (2 Bft) 98,00 %
29.03.2017 08:30 8,3 C 80 % 1025,1 hPa 0,0 l/m 5,5 km/h (1 Bft) S-SW 206 2 min 0,000 mm 0,0 UV-I 160 W/m 5,1 C 8,3 C 9,7 km/h (2 Bft) 100,00 %
29.03.2017 08:32 8,4 C 80 % 1025,0 hPa 0,0 l/m 3,8 km/h (1 Bft) S-SW 197 2 min 0,000 mm 0,0 UV-I 171 W/m 5,2 C 8,4 C 6,4 km/h (2 Bft) 100,00 %
29.03.2017 08:34 8,4 C 79 % 1025,0 hPa 0,0 l/m 3,3 km/h (1 Bft) SW 226 2 min 0,000 mm 0,0 UV-I 184 W/m 5,0 C 8,4 C 6,4 km/h (2 Bft) 98,00 %
29.03.2017 08:36 8,6 C 79 % 1025,0 hPa 0,0 l/m 3,1 km/h (1 Bft) SW 226 2 min 0,000 mm 0,0 UV-I 171 W/m 5,2 C 8,6 C 4,8 km/h (1 Bft) 98,21 %
29.03.2017 08:38 8,8 C 78 % 1025,0 hPa 0,0 l/m 3,3 km/h (1 Bft) SW 226 2 min 0,000 mm 0,0 UV-I 193 W/m 5,2 C 8,8 C 4,8 km/h (1 Bft) 100,00 %
29.03.2017 08:40 8,8 C 78 % 1025,0 hPa 0,0 l/m 4,2 km/h (1 Bft) SW 229 2 min 0,000 mm 0,0 UV-I 204 W/m 5,2 C 8,8 C 6,4 km/h (2 Bft) 96,00 %
29.03.2017 08:42 8,9 C 77 % 1025,0 hPa 0,0 l/m 4,2 km/h (1 Bft) S-SW 205 2 min 0,000 mm 0,0 UV-I 228 W/m 5,1 C 8,9 C 6,4 km/h (2 Bft) 97,73 %
29.03.2017 08:44 9,1 C 77 % 1025,0 hPa 0,0 l/m 3,6 km/h (1 Bft) S-SW 206 2 min 0,000 mm 0,0 UV-I 244 W/m 5,3 C 9,1 C 6,4 km/h (2 Bft) 96,00 %
29.03.2017 08:46 9,2 C 76 % 1025,0 hPa 0,0 l/m 2,5 km/h (1 Bft) S-SW 206 2 min 0,000 mm 0,0 UV-I 225 W/m 5,2 C 9,2 C 4,8 km/h (1 Bft) 97,37 %
29.03.2017 08:48 9,3 C 76 % 1025,0 hPa 0,0 l/m 2,7 km/h (1 Bft) S-SW 205 2 min 0,000 mm 0,0 UV-I 258 W/m 5,3 C 9,3 C 4,8 km/h (1 Bft) 98,11 %
29.03.2017 08:50 9,5 C 76 % 1025,0 hPa 0,0 l/m 3,9 km/h (1 Bft) S-SW 207 2 min 0,000 mm 0,0 UV-I 297 W/m 5,5 C 9,5 C 8,0 km/h (2 Bft) 94,00 %
29.03.2017 08:52 9,7 C 75 % 1025,0 hPa 0,0 l/m 4,6 km/h (1 Bft) S-SW 207 2 min 0,000 mm 0,0 UV-I 294 W/m 5,5 C 9,7 C 6,4 km/h (2 Bft) 100,00 %
29.03.2017 08:54 9,8 C 76 % 1025,0 hPa 0,0 l/m 4,4 km/h (1 Bft) W-SW 246 2 min 0,000 mm 0,3 UV-I 293 W/m 5,8 C 9,8 C 6,4 km/h (2 Bft) 100,00 %
29.03.2017 08:56 10,0 C 75 % 1025,0 hPa 0,0 l/m 3,6 km/h (1 Bft) SW 236 2 min 0,000 mm 0,5 UV-I 294 W/m 5,8 C 10,0 C 6,4 km/h (2 Bft) 100,00 %
29.03.2017 08:58 10,1 C 74 % 1025,1 hPa 0,0 l/m 4,8 km/h (1 Bft) SW 229 2 min 0,000 mm 0,5 UV-I 294 W/m 5,7 C 10,1 C 8,0 km/h (2 Bft) 97,14 %
29.03.2017 09:00 10,1 C 74 % 1025,1 hPa 0,0 l/m 5,7 km/h (1 Bft) W-SW 238 2 min 0,101 mm 0,5 UV-I 296 W/m 5,7 C 10,1 C 8,0 km/h (2 Bft) 98,00 %
29.03.2017 09:02 10,2 C 74 % 1025,1 hPa 0,0 l/m 5,5 km/h (1 Bft) W-SW 242 2 min 0,000 mm 0,5 UV-I 274 W/m 5,8 C 10,2 C 8,0 km/h (2 Bft) 96,23 %
29.03.2017 09:04 10,2 C 74 % 1025,1 hPa 0,0 l/m 4,8 km/h (1 Bft) W-SW 250 2 min 0,000 mm 0,5 UV-I 225 W/m 5,8 C 10,2 C 6,4 km/h (2 Bft) 95,12 %
29.03.2017 09:06 10,3 C 74 % 1025,1 hPa 0,0 l/m 6,9 km/h (2 Bft) SW 229 2 min 0,000 mm 0,5 UV-I 243 W/m 5,9 C 9,9 C 11,3 km/h (2 Bft) 96,23 %
29.03.2017 09:08 10,3 C 73 % 1025,1 hPa 0,0 l/m 4,6 km/h (1 Bft) W-SW 242 0 min 0,000 mm 0,5 UV-I 206 W/m 5,7 C 10,3 C 8,0 km/h (2 Bft) 95,45 %
29.03.2017 09:10 10,4 C 73 % 1025,1 hPa 0,0 l/m 4,2 km/h (1 Bft) W-SW 238 2 min 0,000 mm 0,6 UV-I 235 W/m 5,8 C 10,4 C 6,4 km/h (2 Bft) 96,67 %
29.03.2017 09:12 10,6 C 72 % 1025,0 hPa 0,0 l/m 4,4 km/h (1 Bft) W-SW 240 2 min 0,000 mm 0,6 UV-I 305 W/m 5,8 C 10,6 C 6,4 km/h (2 Bft) 92,86 %
29.03.2017 09:14 10,6 C 72 % 1025,1 hPa 0,0 l/m 4,4 km/h (1 Bft) W-SW 241 2 min 0,000 mm 0,6 UV-I 305 W/m 5,8 C 10,6 C 6,4 km/h (2 Bft) 96,08 %
29.03.2017 09:16 10,8 C 72 % 1025,0 hPa 0,0 l/m 4,8 km/h (1 Bft) W-SW 249 2 min 0,000 mm 0,6 UV-I 330 W/m 6,0 C 10,8 C 8,0 km/h (2 Bft) 92,45 %
29.03.2017 09:18 10,9 C 72 % 1025,0 hPa 0,0 l/m 3,7 km/h (1 Bft) W-SW 251 2 min 0,000 mm 0,7 UV-I 334 W/m 6,1 C 10,9 C 6,4 km/h (2 Bft) 94,74 %
29.03.2017 09:20 11,0 C 72 % 1025,1 hPa 0,0 l/m 4,1 km/h (1 Bft) W-SW 250 2 min 0,000 mm 0,7 UV-I 328 W/m 6,2 C 11,0 C 6,4 km/h (2 Bft) 92,00 %
29.03.2017 09:22 11,2 C 71 % 1025,1 hPa 0,0 l/m 5,5 km/h (1 Bft) W 273 2 min 0,000 mm 0,7 UV-I 345 W/m 6,1 C 11,2 C 12,9 km/h (3 Bft) 94,00 %
29.03.2017 09:24 11,3 C 71 % 1025,1 hPa 0,0 l/m 7,1 km/h (2 Bft) W-SW 249 2 min 0,000 mm 0,8 UV-I 377 W/m 6,2 C 10,8 C 14,5 km/h (3 Bft) 92,45 %
29.03.2017 09:26 11,4 C 70 % 1025,1 hPa 0,0 l/m 9,7 km/h (2 Bft) W-SW 254 2 min 0,000 mm 0,8 UV-I 377 W/m 6,1 C 9,3 C 17,7 km/h (3 Bft) 94,74 %
29.03.2017 09:28 11,5 C 69 % 1025,1 hPa 0,0 l/m 9,5 km/h (2 Bft) W-SW 248 2 min 0,000 mm 0,8 UV-I 368 W/m 6,0 C 9,5 C 16,1 km/h (3 Bft) 96,00 %
29.03.2017 09:30 11,7 C 69 % 1025,1 hPa 0,0 l/m 11,9 km/h (2 Bft) W-SW 256 2 min 0,000 mm 0,8 UV-I 365 W/m 6,2 C 8,5 C 17,7 km/h (3 Bft) 95,12 %
29.03.2017 09:32 11,8 C 69 % 1025,1 hPa 0,0 l/m 9,9 km/h (2 Bft) W-SW 247 2 min 0,000 mm 0,8 UV-I 391 W/m 6,3 C 9,6 C 16,1 km/h (3 Bft) 96,00 %
29.03.2017 09:34 11,9 C 69 % 1025,1 hPa 0,0 l/m 8,0 km/h (2 Bft) W-SW 247 2 min 0,000 mm 0,9 UV-I 403 W/m 6,4 C 10,8 C 14,5 km/h (3 Bft) 90,24 %
29.03.2017 09:36 12,2 C 70 % 1025,1 hPa 0,0 l/m 11,1 km/h (2 Bft) W 260 2 min 0,000 mm 0,9 UV-I 403 W/m 6,9 C 9,5 C 16,1 km/h (3 Bft) 93,22 %
29.03.2017 09:38 12,3 C 67 % 1025,1 hPa 0,0 l/m 14,4 km/h (3 Bft) W 267 2 min 0,000 mm 0,9 UV-I 409 W/m 6,4 C 8,2 C 20,9 km/h (4 Bft) 92,11 %
29.03.2017 09:40 12,4 C 68 % 1025,1 hPa 0,0 l/m 8,0 km/h (2 Bft) W-SW 248 2 min 0,000 mm 0,9 UV-I 417 W/m 6,7 C 11,4 C 12,9 km/h (3 Bft) 96,97 %
29.03.2017 09:42 12,6 C 68 % 1025,1 hPa 0,0 l/m 7,4 km/h (2 Bft) W-SW 248 2 min 0,000 mm 1,0 UV-I 424 W/m 6,9 C 12,0 C 9,7 km/h (2 Bft) 94,03 %
29.03.2017 09:44 12,7 C 66 % 1025,0 hPa 0,0 l/m 12,4 km/h (3 Bft) W-SW 251 2 min 0,000 mm 1,0 UV-I 427 W/m 6,5 C 9,4 C 19,3 km/h (3 Bft) 96,00 %
29.03.2017 09:46 12,8 C 67 % 1025,1 hPa 0,0 l/m 7,3 km/h (2 Bft) W-SW 238 2 min 0,000 mm 1,0 UV-I 439 W/m 6,8 C 12,2 C 11,3 km/h (2 Bft) 97,73 %
29.03.2017 09:48 13,0 C 66 % 1025,1 hPa 0,0 l/m 5,2 km/h (1 Bft) W-SW 251 2 min 0,000 mm 1,0 UV-I 444 W/m 6,8 C 13,0 C 11,3 km/h (2 Bft) 97,62 %
29.03.2017 09:50 13,2 C 66 % 1025,2 hPa 0,0 l/m 8,6 km/h (2 Bft) W-SW 240 2 min 0,000 mm 1,0 UV-I 445 W/m 7,0 C 11,9 C 17,7 km/h (3 Bft) 96,15 %
29.03.2017 09:52 13,3 C 65 % 1025,1 hPa 0,0 l/m 11,8 km/h (2 Bft) W 269 2 min 0,000 mm 1,1 UV-I 449 W/m 6,9 C 10,4 C 17,7 km/h (3 Bft) 94,00 %
29.03.2017 09:54 13,3 C 66 % 1025,1 hPa 0,0 l/m 8,8 km/h (2 Bft) W 271 2 min 0,000 mm 1,1 UV-I 451 W/m 7,1 C 11,9 C 14,5 km/h (3 Bft) 95,24 %
29.03.2017 09:56 13,4 C 64 % 1025,1 hPa 0,0 l/m 8,3 km/h (2 Bft) W-SW 239 2 min 0,000 mm 1,1 UV-I 450 W/m 6,7 C 12,2 C 14,5 km/h (3 Bft) 96,00 %
29.03.2017 09:58 13,5 C 64 % 1025,0 hPa 0,0 l/m 11,7 km/h (2 Bft) W-SW 252 2 min 0,000 mm 1,1 UV-I 462 W/m 6,8 C 10,7 C 16,1 km/h (3 Bft) 97,56 %
29.03.2017 10:00 13,6 C 64 % 1025,1 hPa 0,0 l/m 13,1 km/h (3 Bft) W-SW 254 2 min 0,203 mm 1,2 UV-I 468 W/m 6,9 C 10,2 C 19,3 km/h (3 Bft) 94,34 %
29.03.2017 10:02 13,7 C 63 % 1025,2 hPa 0,0 l/m 13,2 km/h (3 Bft) W-SW 244 2 min 0,000 mm 1,2 UV-I 476 W/m 6,8 C 10,3 C 22,5 km/h (4 Bft) 94,29 %
29.03.2017 10:04 13,8 C 63 % 1025,2 hPa 0,0 l/m 10,9 km/h (2 Bft) W 272 2 min 0,000 mm 1,2 UV-I 478 W/m 6,9 C 11,4 C 16,1 km/h (3 Bft) 98,31 %
29.03.2017 10:06 13,9 C 62 % 1025,1 hPa 0,0 l/m 13,2 km/h (3 Bft) W-SW 253 2 min 0,000 mm 1,3 UV-I 485 W/m 6,7 C 10,5 C 19,3 km/h (3 Bft) 100,00 %
29.03.2017 10:08 14,0 C 62 % 1025,1 hPa 0,0 l/m 14,1 km/h (3 Bft) SW 227 2 min 0,000 mm 1,3 UV-I 490 W/m 6,8 C 10,3 C 20,9 km/h (4 Bft) 95,12 %
29.03.2017 10:10 14,1 C 61 % 1025,1 hPa 0,0 l/m 13,7 km/h (3 Bft) W-SW 238 2 min 0,000 mm 1,3 UV-I 495 W/m 6,7 C 10,6 C 22,5 km/h (4 Bft) 100,00 %
29.03.2017 10:12 14,3 C 62 % 1025,2 hPa 0,0 l/m 11,1 km/h (2 Bft) SW 232 2 min 0,000 mm 1,3 UV-I 499 W/m 7,1 C 11,8 C 19,3 km/h (3 Bft) 100,00 %
29.03.2017 10:14 14,4 C 60 % 1025,2 hPa 0,0 l/m 14,4 km/h (3 Bft) W-SW 258 2 min 0,000 mm 1,3 UV-I 505 W/m 6,7 C 10,7 C 20,9 km/h (4 Bft) 100,00 %
29.03.2017 10:16 14,4 C 60 % 1025,2 hPa 0,0 l/m 15,3 km/h (3 Bft) W-SW 250 2 min 0,000 mm 1,4 UV-I 509 W/m 6,7 C 10,4 C 22,5 km/h (4 Bft) 100,00 %
29.03.2017 10:18 14,6 C 60 % 1025,2 hPa 0,0 l/m 9,1 km/h (2 Bft) SW 221 2 min 0,000 mm 1,4 UV-I 512 W/m 6,9 C 13,1 C 16,1 km/h (3 Bft) 97,87 %
29.03.2017 10:20 14,7 C 60 % 1025,2 hPa 0,0 l/m 10,7 km/h (2 Bft) W-SW 254 2 min 0,000 mm 1,4 UV-I 523 W/m 7,0 C 12,5 C 17,7 km/h (3 Bft) 100,00 %
29.03.2017 10:22 14,8 C 60 % 1025,3 hPa 0,0 l/m 13,0 km/h (3 Bft) W-SW 254 2 min 0,000 mm 1,5 UV-I 527 W/m 7,1 C 11,7 C 19,3 km/h (3 Bft) 100,00 %
29.03.2017 10:24 14,8 C 60 % 1025,3 hPa 0,0 l/m 6,4 km/h (2 Bft) W-NW 302 2 min 0,000 mm 1,5 UV-I 530 W/m 7,1 C 14,8 C 12,9 km/h (3 Bft) 97,44 %
29.03.2017 10:26 14,9 C 60 % 1025,3 hPa 0,0 l/m 9,8 km/h (2 Bft) W 276 2 min 0,000 mm 1,5 UV-I 535 W/m 7,2 C 13,1 C 17,7 km/h (3 Bft) 97,87 %
29.03.2017 10:28 15,0 C 60 % 1025,3 hPa 0,0 l/m 11,8 km/h (2 Bft) W-SW 251 2 min 0,000 mm 1,5 UV-I 536 W/m 7,3 C 12,4 C 19,3 km/h (3 Bft) 95,74 %
29.03.2017 10:30 15,0 C 59 % 1025,3 hPa 0,0 l/m 12,2 km/h (2 Bft) W-SW 242 2 min 0,000 mm 1,5 UV-I 538 W/m 7,1 C 12,2 C 17,7 km/h (3 Bft) 96,23 %
29.03.2017 10:32 15,1 C 58 % 1025,3 hPa 0,0 l/m 12,6 km/h (3 Bft) W-SW 254 2 min 0,000 mm 1,6 UV-I 543 W/m 6,9 C 12,2 C 22,5 km/h (4 Bft) 100,00 %
29.03.2017 10:34 15,2 C 59 % 1025,2 hPa 0,0 l/m 12,9 km/h (3 Bft) W 267 2 min 0,000 mm 1,6 UV-I 548 W/m 7,2 C 12,2 C 17,7 km/h (3 Bft) 93,75 %
29.03.2017 10:36 15,2 C 59 % 1025,4 hPa 0,0 l/m 7,5 km/h (2 Bft) SW 218 2 min 0,000 mm 1,6 UV-I 552 W/m 7,2 C 14,6 C 12,9 km/h (3 Bft) 100,00 %
29.03.2017 10:38 15,4 C 60 % 1025,3 hPa 0,0 l/m 8,3 km/h (2 Bft) W 270 2 min 0,000 mm 1,6 UV-I 543 W/m 7,7 C 14,4 C 11,3 km/h (2 Bft) 97,37 %
29.03.2017 10:40 15,5 C 59 % 1025,3 hPa 0,0 l/m 13,3 km/h (3 Bft) W-SW 250 2 min 0,000 mm 1,6 UV-I 548 W/m 7,5 C 12,4 C 17,7 km/h (3 Bft) 100,00 %
29.03.2017 10:42 15,5 C 57 % 1025,3 hPa 0,0 l/m 14,7 km/h (3 Bft) SW 231 2 min 0,000 mm 1,7 UV-I 556 W/m 7,0 C 11,9 C 20,9 km/h (4 Bft) 95,74 %
29.03.2017 10:44 15,4 C 57 % 1025,3 hPa 0,0 l/m 14,2 km/h (3 Bft) W-SW 258 2 min 0,000 mm 1,7 UV-I 557 W/m 6,9 C 11,9 C 20,9 km/h (4 Bft) 97,37 %
29.03.2017 10:46 15,4 C 57 % 1025,3 hPa 0,0 l/m 16,0 km/h (3 Bft) W-SW 244 2 min 0,000 mm 1,7 UV-I 560 W/m 6,9 C 11,4 C 20,9 km/h (4 Bft) 96,61 %
29.03.2017 10:48 15,4 C 57 % 1025,3 hPa 0,0 l/m 12,0 km/h (2 Bft) SW 224 2 min 0,000 mm 1,7 UV-I 571 W/m 6,9 C 12,7 C 16,1 km/h (3 Bft) 95,45 %
29.03.2017 10:50 15,6 C 58 % 1025,3 hPa 0,0 l/m 12,1 km/h (2 Bft) W 271 2 min 0,000 mm 1,8 UV-I 577 W/m 7,4 C 12,9 C 19,3 km/h (3 Bft) 96,00 %
29.03.2017 10:52 15,6 C 57 % 1025,3 hPa 0,0 l/m 10,7 km/h (2 Bft) W-SW 250 2 min 0,000 mm 1,8 UV-I 576 W/m 7,1 C 13,5 C 16,1 km/h (3 Bft) 100,00 %
29.03.2017 10:54 15,6 C 57 % 1025,4 hPa 0,0 l/m 11,9 km/h (2 Bft) W 263 2 min 0,000 mm 1,8 UV-I 583 W/m 7,1 C 13,0 C 17,7 km/h (3 Bft) 96,23 %
29.03.2017 10:56 15,7 C 57 % 1025,3 hPa 0,0 l/m 12,3 km/h (3 Bft) W-SW 248 2 min 0,000 mm 1,8 UV-I 578 W/m 7,2 C 13,0 C 16,1 km/h (3 Bft) 97,14 %
29.03.2017 10:58 15,7 C 58 % 1025,3 hPa 0,0 l/m 9,1 km/h (2 Bft) W 263 2 min 0,000 mm 1,9 UV-I 586 W/m 7,5 C 14,3 C 16,1 km/h (3 Bft) 93,22 %
29.03.2017 11:00 15,7 C 58 % 1025,3 hPa 0,0 l/m 6,9 km/h (2 Bft) W 262 2 min 0,331 mm 1,9 UV-I 590 W/m 7,5 C 15,4 C 16,1 km/h (3 Bft) 95,12 %
29.03.2017 11:02 15,8 C 59 % 1025,4 hPa 0,0 l/m 10,1 km/h (2 Bft) W-SW 257 2 min 0,000 mm 1,9 UV-I 592 W/m 7,8 C 14,0 C 19,3 km/h (3 Bft) 95,24 %
29.03.2017 11:04 15,7 C 58 % 1025,4 hPa 0,0 l/m 11,3 km/h (2 Bft) W 260 2 min 0,000 mm 1,9 UV-I 595 W/m 7,5 C 13,3 C 16,1 km/h (3 Bft) 96,15 %
29.03.2017 11:06 15,8 C 59 % 1025,4 hPa 0,0 l/m 10,1 km/h (2 Bft) W 261 2 min 0,000 mm 1,9 UV-I 599 W/m 7,8 C 14,0 C 14,5 km/h (3 Bft) 94,34 %
29.03.2017 11:08 15,8 C 57 % 1025,3 hPa 0,0 l/m 14,1 km/h (3 Bft) W-SW 242 2 min 0,000 mm 1,9 UV-I 600 W/m 7,3 C 12,5 C 20,9 km/h (4 Bft) 100,00 %
29.03.2017 11:10 15,8 C 57 % 1025,3 hPa 0,0 l/m 11,3 km/h (2 Bft) W-SW 246 2 min 0,000 mm 1,9 UV-I 602 W/m 7,3 C 13,5 C 17,7 km/h (3 Bft) 94,34 %
29.03.2017 11:12 15,8 C 58 % 1025,4 hPa 0,0 l/m 9,6 km/h (2 Bft) W 277 2 min 0,000 mm 1,9 UV-I 599 W/m 7,6 C 14,2 C 14,5 km/h (3 Bft) 93,10 %
29.03.2017 11:14 15,9 C 59 % 1025,4 hPa 0,0 l/m 8,0 km/h (2 Bft) W-NW 285 2 min 0,000 mm 2,0 UV-I 606 W/m 7,9 C 15,0 C 12,9 km/h (3 Bft) 97,06 %
29.03.2017 11:16 16,1 C 58 % 1025,3 hPa 0,0 l/m 7,4 km/h (2 Bft) W-NW 287 2 min 0,000 mm 2,0 UV-I 608 W/m 7,8 C 15,6 C 20,9 km/h (4 Bft) 94,74 %
29.03.2017 11:18 16,1 C 59 % 1025,3 hPa 0,0 l/m 3,2 km/h (1 Bft) W-SW 251 2 min 0,000 mm 2,0 UV-I 624 W/m 8,1 C 16,1 C 6,4 km/h (2 Bft) 98,11 %
29.03.2017 11:20 16,2 C 57 % 1025,3 hPa 0,0 l/m 7,2 km/h (2 Bft) W 279 2 min 0,000 mm 2,1 UV-I 619 W/m 7,7 C 15,8 C 12,9 km/h (3 Bft) 95,45 %
29.03.2017 11:22 16,3 C 57 % 1025,3 hPa 0,0 l/m 10,9 km/h (2 Bft) SW 220 2 min 0,000 mm 2,1 UV-I 632 W/m 7,8 C 14,2 C 16,1 km/h (3 Bft) 95,12 %
29.03.2017 11:24 16,3 C 57 % 1025,3 hPa 0,0 l/m 9,6 km/h (2 Bft) W-NW 286 2 min 0,000 mm 2,1 UV-I 632 W/m 7,8 C 14,7 C 14,5 km/h (3 Bft) 96,23 %
29.03.2017 11:26 16,4 C 56 % 1025,3 hPa 0,0 l/m 9,4 km/h (2 Bft) W 271 2 min 0,000 mm 2,2 UV-I 642 W/m 7,6 C 14,9 C 14,5 km/h (3 Bft) 93,62 %
29.03.2017 11:28 16,6 C 56 % 1025,3 hPa 0,0 l/m 4,7 km/h (1 Bft) W 273 2 min 0,000 mm 2,2 UV-I 652 W/m 7,8 C 16,6 C 8,0 km/h (2 Bft) 100,00 %
29.03.2017 11:30 16,6 C 56 % 1025,3 hPa 0,0 l/m 8,0 km/h (2 Bft) W 261 2 min 0,000 mm 2,2 UV-I 659 W/m 7,8 C 15,8 C 14,5 km/h (3 Bft) 98,39 %
29.03.2017 11:32 16,6 C 56 % 1025,3 hPa 0,0 l/m 8,4 km/h (2 Bft) W 263 2 min 0,000 mm 2,2 UV-I 650 W/m 7,8 C 15,6 C 16,1 km/h (3 Bft) 95,74 %
29.03.2017 11:34 16,7 C 55 % 1025,4 hPa 0,0 l/m 5,7 km/h (1 Bft) W-SW 244 2 min 0,000 mm 2,2 UV-I 648 W/m 7,6 C 16,7 C 11,3 km/h (2 Bft) 100,00 %
29.03.2017 11:36 16,8 C 56 % 1025,4 hPa 0,0 l/m 10,7 km/h (2 Bft) W 270 2 min 0,000 mm 2,3 UV-I 651 W/m 8,0 C 14,8 C 17,7 km/h (3 Bft) 94,34 %
29.03.2017 11:38 16,8 C 55 % 1025,4 hPa 0,0 l/m 8,5 km/h (2 Bft) NW 313 2 min 0,000 mm 2,3 UV-I 661 W/m 7,7 C 15,8 C 16,1 km/h (3 Bft) 97,73 %
29.03.2017 11:40 16,8 C 57 % 1025,3 hPa 0,0 l/m 7,6 km/h (2 Bft) W 279 2 min 0,000 mm 2,3 UV-I 664 W/m 8,2 C 16,2 C 17,7 km/h (3 Bft) 96,00 %
29.03.2017 11:42 16,8 C 56 % 1025,3 hPa 0,0 l/m 8,6 km/h (2 Bft) W-NW 297 2 min 0,000 mm 2,3 UV-I 666 W/m 8,0 C 15,7 C 12,9 km/h (3 Bft) 97,92 %
29.03.2017 11:44 16,8 C 56 % 1025,3 hPa 0,0 l/m 12,1 km/h (2 Bft) SW 217 2 min 0,000 mm 2,4 UV-I 666 W/m 8,0 C 14,3 C 24,1 km/h (4 Bft) 98,00 %
29.03.2017 11:46 16,8 C 55 % 1025,3 hPa 0,0 l/m 15,9 km/h (3 Bft) W-SW 252 2 min 0,000 mm 2,4 UV-I 670 W/m 7,7 C 13,1 C 24,1 km/h (4 Bft) 97,62 %
29.03.2017 11:48 16,7 C 55 % 1025,3 hPa 0,0 l/m 18,5 km/h (3 Bft) W-SW 249 2 min 0,000 mm 2,4 UV-I 666 W/m 7,6 C 12,3 C 25,7 km/h (4 Bft) 93,10 %
29.03.2017 11:50 16,7 C 55 % 1025,3 hPa 0,0 l/m 14,6 km/h (3 Bft) W 277 2 min 0,000 mm 2,4 UV-I 674 W/m 7,6 C 13,4 C 24,1 km/h (4 Bft) 96,92 %
29.03.2017 11:52 16,8 C 56 % 1025,2 hPa 0,0 l/m 9,9 km/h (2 Bft) W-SW 257 2 min 0,000 mm 2,5 UV-I 673 W/m 8,0 C 15,1 C 16,1 km/h (3 Bft) 100,00 %
29.03.2017 11:54 17,0 C 56 % 1025,3 hPa 0,0 l/m 9,7 km/h (2 Bft) W-SW 254 2 min 0,000 mm 2,5 UV-I 681 W/m 8,2 C 15,4 C 16,1 km/h (3 Bft) 95,74 %
29.03.2017 11:56 17,0 C 55 % 1025,3 hPa 0,0 l/m 13,9 km/h (3 Bft) SW 220 2 min 0,000 mm 2,5 UV-I 678 W/m 7,9 C 13,9 C 19,3 km/h (3 Bft) 97,37 %
29.03.2017 11:58 16,8 C 54 % 1025,3 hPa 0,0 l/m 13,7 km/h (3 Bft) SW 234 2 min 0,000 mm 2,5 UV-I 667 W/m 7,4 C 13,8 C 19,3 km/h (3 Bft) 98,11 %
29.03.2017 12:00 16,8 C 56 % 1025,2 hPa 0,0 l/m 14,7 km/h (3 Bft) W-SW 252 2 min 0,000 mm 2,5 UV-I 680 W/m 8,0 C 13,5 C 19,3 km/h (3 Bft) 100,00 %
29.03.2017 12:02 16,9 C 56 % 1025,3 hPa 0,0 l/m 10,3 km/h (2 Bft) W 261 2 min 0,406 mm 2,5 UV-I 678 W/m 8,1 C 15,1 C 14,5 km/h (3 Bft) 92,11 %
29.03.2017 12:04 17,1 C 56 % 1025,2 hPa 0,0 l/m 6,4 km/h (2 Bft) W 267 2 min 0,000 mm 2,5 UV-I 669 W/m 8,3 C 17,1 C 11,3 km/h (2 Bft) 96,00 %
29.03.2017 12:06 17,2 C 55 % 1025,2 hPa 0,0 l/m 14,9 km/h (3 Bft) W-SW 240 2 min 0,000 mm 2,5 UV-I 663 W/m 8,1 C 13,9 C 24,1 km/h (4 Bft) 94,34 %
29.03.2017 12:08 17,1 C 54 % 1025,2 hPa 0,0 l/m 14,7 km/h (3 Bft) W-SW 256 2 min 0,000 mm 2,6 UV-I 671 W/m 7,7 C 13,8 C 20,9 km/h (4 Bft) 100,00 %
29.03.2017 12:10 17,2 C 54 % 1025,2 hPa 0,0 l/m 15,3 km/h (3 Bft) W-SW 258 2 min 0,000 mm 2,6 UV-I 669 W/m 7,8 C 13,8 C 25,7 km/h (4 Bft) 94,74 %
29.03.2017 12:12 17,1 C 53 % 1025,2 hPa 0,0 l/m 18,3 km/h (3 Bft) SW 236 2 min 0,000 mm 2,6 UV-I 681 W/m 7,4 C 12,9 C 30,6 km/h (5 Bft) 100,00 %
29.03.2017 12:14 17,0 C 54 % 1025,1 hPa 0,0 l/m 13,7 km/h (3 Bft) W 267 2 min 0,000 mm 2,6 UV-I 689 W/m 7,6 C 14,0 C 20,9 km/h (4 Bft) 95,74 %
29.03.2017 12:16 17,0 C 54 % 1025,2 hPa 0,0 l/m 16,2 km/h (3 Bft) W-SW 244 2 min 0,000 mm 2,7 UV-I 707 W/m 7,6 C 13,3 C 22,5 km/h (4 Bft) 100,00 %
29.03.2017 12:18 17,2 C 54 % 1025,2 hPa 0,0 l/m 13,9 km/h (3 Bft) W-SW 257 2 min 0,000 mm 2,7 UV-I 723 W/m 7,8 C 14,2 C 24,1 km/h (4 Bft) 100,00 %
29.03.2017 12:20 17,1 C 53 % 1025,1 hPa 0,0 l/m 15,7 km/h (3 Bft) W-SW 252 2 min 0,000 mm 2,7 UV-I 703 W/m 7,4 C 13,5 C 29,0 km/h (5 Bft) 98,11 %
29.03.2017 12:22 17,1 C 54 % 1025,1 hPa 0,0 l/m 6,8 km/h (2 Bft) W-SW 246 2 min 0,000 mm 2,6 UV-I 692 W/m 7,7 C 16,9 C 12,9 km/h (3 Bft) 94,00 %
29.03.2017 12:24 17,2 C 54 % 1025,1 hPa 0,0 l/m 13,9 km/h (3 Bft) W-SW 243 2 min 0,000 mm 2,7 UV-I 698 W/m 7,8 C 14,2 C 20,9 km/h (4 Bft) 100,00 %
29.03.2017 12:26 17,2 C 54 % 1025,0 hPa 0,0 l/m 11,6 km/h (2 Bft) W 261 2 min 0,000 mm 2,7 UV-I 702 W/m 7,8 C 14,9 C 19,3 km/h (3 Bft) 97,06 %
29.03.2017 12:28 17,1 C 54 % 1025,1 hPa 0,0 l/m 12,6 km/h (3 Bft) W-SW 248 2 min 0,000 mm 2,7 UV-I 693 W/m 7,7 C 14,5 C 19,3 km/h (3 Bft) 96,55 %
29.03.2017 12:30 17,1 C 54 % 1025,1 hPa 0,0 l/m 13,2 km/h (3 Bft) W 265 2 min 0,000 mm 2,8 UV-I 707 W/m 7,7 C 14,3 C 19,3 km/h (3 Bft) 100,00 %
29.03.2017 12:32 17,2 C 54 % 1025,1 hPa 0,0 l/m 16,5 km/h (3 Bft) NW 323 2 min 0,000 mm 2,8 UV-I 705 W/m 7,8 C 13,4 C 29,0 km/h (5 Bft) 96,43 %
29.03.2017 12:34 17,3 C 54 % 1025,1 hPa 0,0 l/m 12,1 km/h (2 Bft) W-SW 244 2 min 0,000 mm 2,8 UV-I 703 W/m 7,9 C 14,9 C 19,3 km/h (3 Bft) 100,00 %
29.03.2017 12:36 17,3 C 54 % 1025,1 hPa 0,0 l/m 13,5 km/h (3 Bft) W 280 2 min 0,000 mm 2,8 UV-I 706 W/m 7,9 C 14,4 C 20,9 km/h (4 Bft) 100,00 %
29.03.2017 12:38 17,3 C 53 % 1025,0 hPa 0,0 l/m 13,3 km/h (3 Bft) W-SW 258 2 min 0,000 mm 2,8 UV-I 701 W/m 7,6 C 14,5 C 22,5 km/h (4 Bft) 98,00 %
29.03.2017 12:40 17,3 C 54 % 1025,0 hPa 0,0 l/m 11,2 km/h (2 Bft) W 267 2 min 0,000 mm 2,8 UV-I 717 W/m 7,9 C 15,2 C 17,7 km/h (3 Bft) 94,74 %
29.03.2017 12:42 17,4 C 53 % 1025,0 hPa 0,0 l/m 10,4 km/h (2 Bft) W 273 2 min 0,000 mm 2,8 UV-I 714 W/m 7,7 C 15,6 C 22,5 km/h (4 Bft) 95,74 %
29.03.2017 12:44 17,6 C 53 % 1025,0 hPa 0,0 l/m 15,3 km/h (3 Bft) SW 229 2 min 0,000 mm 2,8 UV-I 708 W/m 7,9 C 14,3 C 20,9 km/h (4 Bft) 94,74 %
29.03.2017 12:46 17,5 C 52 % 1025,0 hPa 0,0 l/m 17,6 km/h (3 Bft) W-SW 258 2 min 0,000 mm 2,9 UV-I 717 W/m 7,5 C 13,5 C 27,4 km/h (4 Bft) 94,92 %
29.03.2017 12:48 17,5 C 53 % 1025,0 hPa 0,0 l/m 11,5 km/h (2 Bft) W-SW 243 2 min 0,000 mm 2,9 UV-I 714 W/m 7,8 C 15,3 C 17,7 km/h (3 Bft) 97,56 %
29.03.2017 12:50 17,4 C 52 % 1024,9 hPa 0,0 l/m 15,4 km/h (3 Bft) W 277 2 min 0,000 mm 2,9 UV-I 716 W/m 7,4 C 14,0 C 22,5 km/h (4 Bft) 98,21 %
29.03.2017 12:52 17,4 C 55 % 1024,9 hPa 0,0 l/m 11,5 km/h (2 Bft) W-NW 302 2 min 0,000 mm 2,9 UV-I 720 W/m 8,3 C 15,2 C 19,3 km/h (3 Bft) 97,56 %
29.03.2017 12:54 17,6 C 55 % 1024,9 hPa 0,0 l/m 10,7 km/h (2 Bft) W 270 2 min 0,000 mm 2,9 UV-I 722 W/m 8,5 C 15,7 C 19,3 km/h (3 Bft) 95,74 %
29.03.2017 12:56 17,6 C 52 % 1024,8 hPa 0,0 l/m 16,3 km/h (3 Bft) W 281 2 min 0,000 mm 2,9 UV-I 717 W/m 7,6 C 14,0 C 24,1 km/h (4 Bft) 94,00 %
29.03.2017 12:58 17,5 C 53 % 1024,8 hPa 0,0 l/m 13,1 km/h (3 Bft) W-SW 238 2 min 0,000 mm 2,9 UV-I 727 W/m 7,8 C 14,8 C 19,3 km/h (3 Bft) 97,73 %
29.03.2017 13:00 17,6 C 53 % 1024,8 hPa 0,0 l/m 13,0 km/h (3 Bft) W-SW 257 2 min 0,457 mm 2,9 UV-I 731 W/m 7,9 C 14,9 C 24,1 km/h (4 Bft) 96,43 %
29.03.2017 13:02 17,7 C 53 % 1024,8 hPa 0,0 l/m 10,1 km/h (2 Bft) W 266 2 min 0,000 mm 2,9 UV-I 732 W/m 8,0 C 16,1 C 20,9 km/h (4 Bft) 92,68 %
29.03.2017 13:04 17,7 C 54 % 1024,7 hPa 0,0 l/m 6,4 km/h (2 Bft) W 281 2 min 0,000 mm 2,9 UV-I 713 W/m 8,3 C 17,7 C 20,9 km/h (4 Bft) 93,75 %
29.03.2017 13:06 17,9 C 54 % 1024,8 hPa 0,0 l/m 6,7 km/h (2 Bft) W 262 2 min 0,000 mm 2,9 UV-I 700 W/m 8,5 C 17,8 C 12,9 km/h (3 Bft) 97,56 %
29.03.2017 13:08 17,9 C 52 % 1024,8 hPa 0,0 l/m 12,0 km/h (2 Bft) W-SW 251 2 min 0,000 mm 3,0 UV-I 730 W/m 7,9 C 15,6 C 20,9 km/h (4 Bft) 98,00 %
29.03.2017 13:10 17,9 C 52 % 1024,8 hPa 0,0 l/m 10,1 km/h (2 Bft) W-SW 257 2 min 0,000 mm 3,0 UV-I 720 W/m 7,9 C 16,3 C 19,3 km/h (3 Bft) 96,00 %
29.03.2017 13:12 17,8 C 52 % 1024,8 hPa 0,0 l/m 15,8 km/h (3 Bft) W 269 2 min 0,000 mm 2,9 UV-I 714 W/m 7,8 C 14,4 C 20,9 km/h (4 Bft) 95,12 %
29.03.2017 13:14 17,8 C 53 % 1024,8 hPa 0,0 l/m 11,9 km/h (2 Bft) W 266 2 min 0,000 mm 3,0 UV-I 723 W/m 8,1 C 15,5 C 19,3 km/h (3 Bft) 100,00 %
29.03.2017 13:16 17,8 C 52 % 1024,9 hPa 0,0 l/m 14,9 km/h (3 Bft) W 269 2 min 0,000 mm 2,9 UV-I 727 W/m 7,8 C 14,6 C 25,7 km/h (4 Bft) 100,00 %
29.03.2017 13:18 17,8 C 53 % 1024,8 hPa 0,0 l/m 13,8 km/h (3 Bft) W-SW 258 2 min 0,000 mm 3,0 UV-I 727 W/m 8,1 C 14,9 C 25,7 km/h (4 Bft) 98,39 %
29.03.2017 13:20 17,9 C 53 % 1024,8 hPa 0,0 l/m 12,1 km/h (2 Bft) W-SW 257 2 min 0,000 mm 3,0 UV-I 733 W/m 8,2 C 15,6 C 17,7 km/h (3 Bft) 100,00 %
29.03.2017 13:22 18,1 C 53 % 1024,8 hPa 0,0 l/m 7,9 km/h (2 Bft) W-SW 252 2 min 0,000 mm 3,0 UV-I 723 W/m 8,4 C 17,4 C 19,3 km/h (3 Bft) 98,11 %
29.03.2017 13:24 18,2 C 52 % 1024,7 hPa 0,0 l/m 8,9 km/h (2 Bft) W-SW 256 2 min 0,000 mm 3,0 UV-I 716 W/m 8,2 C 17,1 C 12,9 km/h (3 Bft) 100,00 %
29.03.2017 13:26 18,2 C 51 % 1024,7 hPa 0,0 l/m 13,1 km/h (3 Bft) S 188 2 min 0,000 mm 3,0 UV-I 718 W/m 7,9 C 15,6 C 19,3 km/h (3 Bft) 98,11 %
29.03.2017 13:28 18,2 C 51 % 1024,7 hPa 0,0 l/m 15,7 km/h (3 Bft) W-SW 254 2 min 0,000 mm 3,0 UV-I 718 W/m 7,9 C 14,9 C 22,5 km/h (4 Bft) 100,00 %
29.03.2017 13:30 18,1 C 50 % 1024,7 hPa 0,0 l/m 16,0 km/h (3 Bft) W-SW 255 2 min 0,000 mm 2,9 UV-I 717 W/m 7,5 C 14,7 C 20,9 km/h (4 Bft) 100,00 %
29.03.2017 13:32 18,0 C 51 % 1024,6 hPa 0,0 l/m 12,1 km/h (2 Bft) W 260 2 min 0,000 mm 2,9 UV-I 719 W/m 7,7 C 15,7 C 20,9 km/h (4 Bft) 100,00 %
29.03.2017 13:34 18,1 C 53 % 1024,6 hPa 0,0 l/m 6,7 km/h (2 Bft) NW 316 2 min 0,000 mm 2,9 UV-I 718 W/m 8,4 C 18,0 C 12,9 km/h (3 Bft) 100,00 %
29.03.2017 13:36 18,1 C 52 % 1024,5 hPa 0,0 l/m 14,3 km/h (3 Bft) W 261 2 min 0,000 mm 2,9 UV-I 718 W/m 8,1 C 15,1 C 25,7 km/h (4 Bft) 100,00 %
29.03.2017 13:38 18,0 C 52 % 1024,5 hPa 0,0 l/m 8,2 km/h (2 Bft) W-NW 285 2 min 0,000 mm 2,9 UV-I 715 W/m 8,0 C 17,2 C 12,9 km/h (3 Bft) 95,74 %
29.03.2017 13:40 18,2 C 54 % 1024,5 hPa 0,0 l/m 6,2 km/h (2 Bft) SW 229 2 min 0,000 mm 2,9 UV-I 711 W/m 8,7 C 18,2 C 14,5 km/h (3 Bft) 94,00 %
29.03.2017 13:42 18,4 C 52 % 1024,5 hPa 0,0 l/m 7,8 km/h (2 Bft) SW 232 2 min 0,000 mm 2,9 UV-I 713 W/m 8,4 C 17,8 C 12,9 km/h (3 Bft) 97,62 %
29.03.2017 13:44 18,4 C 52 % 1024,4 hPa 0,0 l/m 10,2 km/h (2 Bft) W-SW 254 2 min 0,000 mm 2,9 UV-I 718 W/m 8,4 C 16,8 C 14,5 km/h (3 Bft) 98,00 %
29.03.2017 13:46 18,4 C 51 % 1024,4 hPa 0,0 l/m 10,2 km/h (2 Bft) W-SW 252 2 min 0,000 mm 2,9 UV-I 719 W/m 8,1 C 16,8 C 16,1 km/h (3 Bft) 100,00 %
29.03.2017 13:48 18,3 C 51 % 1024,4 hPa 0,0 l/m 12,2 km/h (2 Bft) W-NW 294 2 min 0,000 mm 2,9 UV-I 710 W/m 8,0 C 16,0 C 22,5 km/h (4 Bft) 98,21 %
29.03.2017 13:50 18,4 C 52 % 1024,4 hPa 0,0 l/m 4,3 km/h (1 Bft) W-SW 251 2 min 0,000 mm 2,8 UV-I 707 W/m 8,4 C 18,4 C 9,7 km/h (2 Bft) 98,00 %
29.03.2017 13:52 18,6 C 52 % 1024,3 hPa 0,0 l/m 7,4 km/h (2 Bft) W-SW 238 2 min 0,000 mm 2,8 UV-I 703 W/m 8,5 C 18,1 C 12,9 km/h (3 Bft) 97,37 %
29.03.2017 13:54 18,7 C 51 % 1024,3 hPa 0,0 l/m 5,4 km/h (1 Bft) SW 224 2 min 0,000 mm 2,8 UV-I 713 W/m 8,4 C 18,7 C 11,3 km/h (2 Bft) 91,49 %
29.03.2017 13:56 18,7 C 50 % 1024,3 hPa 0,0 l/m 8,7 km/h (2 Bft) W-SW 257 2 min 0,000 mm 2,9 UV-I 709 W/m 8,1 C 17,7 C 17,7 km/h (3 Bft) 98,21 %
29.03.2017 13:58 18,7 C 50 % 1024,3 hPa 0,0 l/m 8,8 km/h (2 Bft) W 262 2 min 0,000 mm 2,8 UV-I 701 W/m 8,1 C 17,7 C 14,5 km/h (3 Bft) 95,12 %
29.03.2017 14:00 18,7 C 50 % 1024,3 hPa 0,0 l/m 18,1 km/h (3 Bft) W 274 2 min 0,000 mm 2,8 UV-I 697 W/m 8,1 C 14,9 C 27,4 km/h (4 Bft) 90,24 %
29.03.2017 14:02 18,6 C 51 % 1024,3 hPa 0,0 l/m 16,2 km/h (3 Bft) W-SW 254 2 min 0,457 mm 2,8 UV-I 699 W/m 8,3 C 15,2 C 30,6 km/h (5 Bft) 92,45 %
29.03.2017 14:04 18,5 C 50 % 1024,3 hPa 0,0 l/m 15,9 km/h (3 Bft) W-SW 250 2 min 0,000 mm 2,8 UV-I 710 W/m 7,9 C 15,2 C 20,9 km/h (4 Bft) 94,00 %
29.03.2017 14:06 18,4 C 51 % 1024,2 hPa 0,0 l/m 15,8 km/h (3 Bft) W-NW 298 2 min 0,000 mm 2,8 UV-I 706 W/m 8,1 C 15,1 C 29,0 km/h (5 Bft) 97,87 %
29.03.2017 14:08 18,5 C 52 % 1024,3 hPa 0,0 l/m 13,0 km/h (3 Bft) W-NW 302 2 min 0,000 mm 2,7 UV-I 716 W/m 8,5 C 16,0 C 20,9 km/h (4 Bft) 94,74 %
29.03.2017 14:10 18,4 C 51 % 1024,2 hPa 0,0 l/m 13,5 km/h (3 Bft) NW 316 2 min 0,000 mm 2,7 UV-I 717 W/m 8,1 C 15,7 C 22,5 km/h (4 Bft) 96,23 %
29.03.2017 14:12 18,4 C 51 % 1024,2 hPa 0,0 l/m 11,9 km/h (2 Bft) W 273 2 min 0,000 mm 2,7 UV-I 728 W/m 8,1 C 16,2 C 20,9 km/h (4 Bft) 95,45 %
29.03.2017 14:14 18,4 C 50 % 1024,1 hPa 0,0 l/m 15,8 km/h (3 Bft) W 262 2 min 0,000 mm 2,7 UV-I 714 W/m 7,8 C 15,1 C 27,4 km/h (4 Bft) 98,00 %
29.03.2017 14:16 18,4 C 49 % 1024,1 hPa 0,0 l/m 12,8 km/h (3 Bft) W 267 2 min 0,000 mm 2,8 UV-I 717 W/m 7,5 C 15,9 C 20,9 km/h (4 Bft) 92,31 %
29.03.2017 14:18 18,4 C 49 % 1024,1 hPa 0,0 l/m 16,6 km/h (3 Bft) W-NW 292 2 min 0,000 mm 2,6 UV-I 695 W/m 7,5 C 14,9 C 29,0 km/h (5 Bft) 97,96 %
29.03.2017 14:20 18,4 C 49 % 1024,1 hPa 0,0 l/m 14,9 km/h (3 Bft) W 269 0 min 0,000 mm 2,6 UV-I 321 W/m 7,5 C 15,3 C 24,1 km/h (4 Bft) 94,00 %
29.03.2017 14:22 18,4 C 49 % 1024,1 hPa 0,0 l/m 14,0 km/h (3 Bft) NW 321 2 min 0,000 mm 2,7 UV-I 706 W/m 7,5 C 15,6 C 24,1 km/h (4 Bft) 95,83 %
29.03.2017 14:24 18,4 C 49 % 1024,0 hPa 0,0 l/m 11,3 km/h (2 Bft) W-SW 241 2 min 0,000 mm 2,7 UV-I 710 W/m 7,5 C 16,4 C 22,5 km/h (4 Bft) 100,00 %
29.03.2017 14:26 18,6 C 51 % 1024,0 hPa 0,0 l/m 8,5 km/h (2 Bft) W 259 2 min 0,000 mm 2,7 UV-I 724 W/m 8,3 C 17,7 C 17,7 km/h (3 Bft) 88,64 %
29.03.2017 14:28 18,8 C 49 % 1023,9 hPa 0,0 l/m 13,1 km/h (3 Bft) SW 223 2 min 0,000 mm 2,7 UV-I 706 W/m 7,9 C 16,3 C 25,7 km/h (4 Bft) 95,74 %
29.03.2017 14:30 18,8 C 47 % 1023,9 hPa 0,0 l/m 13,9 km/h (3 Bft) W-NW 299 2 min 0,000 mm 2,6 UV-I 683 W/m 7,2 C 16,1 C 24,1 km/h (4 Bft) 93,18 %
29.03.2017 14:32 18,7 C 49 % 1023,9 hPa 0,0 l/m 7,2 km/h (2 Bft) SW 236 2 min 0,000 mm 2,6 UV-I 676 W/m 7,8 C 18,3 C 20,9 km/h (4 Bft) 93,18 %
29.03.2017 14:34 18,8 C 47 % 1023,9 hPa 0,0 l/m 7,3 km/h (2 Bft) W-NW 282 2 min 0,000 mm 2,6 UV-I 684 W/m 7,2 C 18,4 C 14,5 km/h (3 Bft) 93,62 %
29.03.2017 14:36 18,8 C 47 % 1023,9 hPa 0,0 l/m 11,9 km/h (2 Bft) W-SW 253 2 min 0,000 mm 2,6 UV-I 683 W/m 7,2 C 16,7 C 20,9 km/h (4 Bft) 90,57 %
29.03.2017 14:38 18,8 C 48 % 1023,8 hPa 0,0 l/m 11,9 km/h (2 Bft) W-SW 251 2 min 0,000 mm 2,6 UV-I 675 W/m 7,6 C 16,7 C 22,5 km/h (4 Bft) 94,00 %
29.03.2017 14:40 18,7 C 47 % 1023,8 hPa 0,0 l/m 9,7 km/h (2 Bft) SW 215 2 min 0,000 mm 2,6 UV-I 670 W/m 7,2 C 17,3 C 22,5 km/h (4 Bft) 94,74 %
29.03.2017 14:42 18,8 C 48 % 1023,8 hPa 0,0 l/m 7,8 km/h (2 Bft) W-NW 289 2 min 0,000 mm 2,6 UV-I 680 W/m 7,6 C 18,2 C 17,7 km/h (3 Bft) 93,62 %
29.03.2017 14:44 18,9 C 47 % 1023,8 hPa 0,0 l/m 14,0 km/h (3 Bft) W-NW 283 2 min 0,000 mm 2,6 UV-I 696 W/m 7,3 C 16,2 C 20,9 km/h (4 Bft) 94,64 %
29.03.2017 14:46 19,0 C 47 % 1023,8 hPa 0,0 l/m 12,2 km/h (2 Bft) SW 225 2 min 0,000 mm 2,6 UV-I 707 W/m 7,4 C 16,8 C 17,7 km/h (3 Bft) 94,74 %
29.03.2017 14:48 19,1 C 47 % 1023,8 hPa 0,0 l/m 13,8 km/h (3 Bft) W-SW 258 2 min 0,000 mm 2,5 UV-I 692 W/m 7,5 C 16,5 C 20,9 km/h (4 Bft) 93,62 %
29.03.2017 14:50 19,1 C 47 % 1023,8 hPa 0,0 l/m 11,5 km/h (2 Bft) SW 232 2 min 0,000 mm 2,5 UV-I 674 W/m 7,5 C 17,1 C 25,7 km/h (4 Bft) 94,44 %
29.03.2017 14:52 19,0 C 47 % 1023,7 hPa 0,0 l/m 16,0 km/h (3 Bft) W-SW 255 2 min 0,000 mm 2,5 UV-I 680 W/m 7,4 C 15,8 C 24,1 km/h (4 Bft) 95,08 %
29.03.2017 14:54 19,1 C 47 % 1023,7 hPa 0,0 l/m 18,2 km/h (3 Bft) W 261 2 min 0,000 mm 2,5 UV-I 679 W/m 7,5 C 15,4 C 24,1 km/h (4 Bft) 92,00 %
29.03.2017 14:56 19,1 C 46 % 1023,7 hPa 0,0 l/m 22,7 km/h (4 Bft) W 277 2 min 0,000 mm 2,5 UV-I 683 W/m 7,2 C 14,5 C 37,0 km/h (5 Bft) 95,12 %
29.03.2017 14:58 18,9 C 46 % 1023,7 hPa 0,0 l/m 12,8 km/h (3 Bft) W-SW 252 2 min 0,000 mm 2,4 UV-I 675 W/m 7,0 C 16,5 C 24,1 km/h (4 Bft) 92,31 %
29.03.2017 15:00 18,9 C 46 % 1023,7 hPa 0,0 l/m 18,7 km/h (3 Bft) W-SW 252 2 min 0,483 mm 2,1 UV-I 632 W/m 7,0 C 15,1 C 29,0 km/h (5 Bft) 96,55 %
29.03.2017 15:02 18,8 C 47 % 1023,7 hPa 0,0 l/m 14,0 km/h (3 Bft) W-SW 250 2 min 0,000 mm 2,3 UV-I 638 W/m 7,2 C 16,1 C 19,3 km/h (3 Bft) 97,22 %
29.03.2017 15:04 18,8 C 47 % 1023,6 hPa 0,0 l/m 15,9 km/h (3 Bft) SW 236 2 min 0,000 mm 2,3 UV-I 638 W/m 7,2 C 15,6 C 27,4 km/h (4 Bft) 96,23 %
29.03.2017 15:06 18,8 C 46 % 1023,6 hPa 0,0 l/m 14,5 km/h (3 Bft) SW 220 2 min 0,000 mm 2,3 UV-I 637 W/m 6,9 C 15,9 C 24,1 km/h (4 Bft) 96,43 %
29.03.2017 15:08 19,0 C 47 % 1023,6 hPa 0,0 l/m 11,7 km/h (2 Bft) W-SW 252 2 min 0,000 mm 2,2 UV-I 636 W/m 7,4 C 17,0 C 19,3 km/h (3 Bft) 97,37 %
29.03.2017 15:10 19,2 C 48 % 1023,6 hPa 0,0 l/m 14,3 km/h (3 Bft) W-NW 282 2 min 0,000 mm 2,2 UV-I 634 W/m 7,9 C 16,5 C 25,7 km/h (4 Bft) 96,00 %
29.03.2017 15:12 19,2 C 46 % 1023,6 hPa 0,0 l/m 14,0 km/h (3 Bft) W 264 2 min 0,000 mm 2,1 UV-I 624 W/m 7,3 C 16,5 C 19,3 km/h (3 Bft) 95,12 %
29.03.2017 15:14 19,1 C 45 % 1023,5 hPa 0,0 l/m 17,2 km/h (3 Bft) W-SW 256 2 min 0,000 mm 1,9 UV-I 615 W/m 6,9 C 15,6 C 24,1 km/h (4 Bft) 98,31 %
29.03.2017 15:16 18,9 C 48 % 1023,5 hPa 0,0 l/m 13,8 km/h (3 Bft) W 269 2 min 0,000 mm 2,1 UV-I 617 W/m 7,6 C 16,2 C 20,9 km/h (4 Bft) 95,12 %
29.03.2017 15:18 19,1 C 46 % 1023,5 hPa 0,0 l/m 20,3 km/h (4 Bft) W-SW 246 2 min 0,000 mm 2,0 UV-I 618 W/m 7,2 C 15,0 C 32,2 km/h (5 Bft) 98,11 %
29.03.2017 15:20 19,1 C 47 % 1023,5 hPa 0,0 l/m 19,2 km/h (3 Bft) W-SW 241 2 min 0,000 mm 2,0 UV-I 629 W/m 7,5 C 15,2 C 29,0 km/h (5 Bft) 94,29 %
29.03.2017 15:22 19,1 C 46 % 1023,4 hPa 0,0 l/m 16,3 km/h (3 Bft) W-SW 258 2 min 0,000 mm 2,1 UV-I 628 W/m 7,2 C 15,8 C 32,2 km/h (5 Bft) 100,00 %
29.03.2017 15:24 19,1 C 46 % 1023,4 hPa 0,0 l/m 14,9 km/h (3 Bft) SW 223 2 min 0,000 mm 2,1 UV-I 616 W/m 7,2 C 16,2 C 25,7 km/h (4 Bft) 100,00 %
29.03.2017 15:26 19,1 C 47 % 1023,4 hPa 0,0 l/m 13,1 km/h (3 Bft) W 275 2 min 0,000 mm 2,0 UV-I 605 W/m 7,5 C 16,7 C 22,5 km/h (4 Bft) 100,00 %
29.03.2017 15:28 19,2 C 48 % 1023,4 hPa 0,0 l/m 4,9 km/h (1 Bft) W-NW 293 2 min 0,000 mm 1,9 UV-I 611 W/m 7,9 C 19,2 C 11,3 km/h (2 Bft) 100,00 %
29.03.2017 15:30 19,4 C 50 % 1023,4 hPa 0,0 l/m 6,2 km/h (2 Bft) SW 229 2 min 0,000 mm 1,9 UV-I 573 W/m 8,7 C 19,4 C 11,3 km/h (2 Bft) 100,00 %
29.03.2017 15:32 19,3 C 47 % 1023,5 hPa 0,0 l/m 7,6 km/h (2 Bft) W-NW 284 2 min 0,000 mm 1,7 UV-I 524 W/m 7,7 C 18,8 C 16,1 km/h (3 Bft) 95,74 %
29.03.2017 15:34 19,1 C 48 % 1023,4 hPa 0,0 l/m 7,9 km/h (2 Bft) W-SW 252 2 min 0,000 mm 1,7 UV-I 536 W/m 7,8 C 18,4 C 12,9 km/h (3 Bft) 100,00 %
29.03.2017 15:36 19,1 C 48 % 1023,4 hPa 0,0 l/m 10,9 km/h (2 Bft) W-SW 254 2 min 0,000 mm 1,7 UV-I 592 W/m 7,8 C 17,3 C 16,1 km/h (3 Bft) 98,28 %
29.03.2017 15:38 18,9 C 48 % 1023,3 hPa 0,0 l/m 7,7 km/h (2 Bft) W 269 2 min 0,000 mm 1,7 UV-I 581 W/m 7,6 C 18,3 C 16,1 km/h (3 Bft) 95,24 %
29.03.2017 15:40 18,8 C 47 % 1023,3 hPa 0,0 l/m 14,0 km/h (3 Bft) SW 219 0 min 0,000 mm 1,5 UV-I 296 W/m 7,2 C 16,1 C 22,5 km/h (4 Bft) 100,00 %
29.03.2017 15:42 18,7 C 48 % 1023,3 hPa 0,0 l/m 13,1 km/h (3 Bft) W 264 2 min 0,000 mm 1,6 UV-I 513 W/m 7,5 C 16,2 C 27,4 km/h (4 Bft) 98,15 %
29.03.2017 15:44 18,7 C 47 % 1023,3 hPa 0,0 l/m 9,4 km/h (2 Bft) W 273 2 min 0,000 mm 1,2 UV-I 323 W/m 7,2 C 17,4 C 22,5 km/h (4 Bft) 100,00 %
29.03.2017 15:46 18,6 C 48 % 1023,3 hPa 0,0 l/m 15,4 km/h (3 Bft) W 267 0 min 0,000 mm 1,4 UV-I 211 W/m 7,4 C 15,4 C 29,0 km/h (5 Bft) 97,56 %
29.03.2017 15:48 18,5 C 47 % 1023,2 hPa 0,0 l/m 11,8 km/h (2 Bft) W-SW 254 2 min 0,000 mm 1,6 UV-I 510 W/m 7,0 C 16,4 C 22,5 km/h (4 Bft) 96,61 %
29.03.2017 15:50 18,4 C 48 % 1023,2 hPa 0,0 l/m 13,4 km/h (3 Bft) W 279 0 min 0,000 mm 1,3 UV-I 305 W/m 7,2 C 15,8 C 20,9 km/h (4 Bft) 100,00 %
29.03.2017 15:52 18,4 C 48 % 1023,2 hPa 0,0 l/m 9,9 km/h (2 Bft) W-NW 284 2 min 0,000 mm 1,5 UV-I 330 W/m 7,2 C 16,9 C 16,1 km/h (3 Bft) 98,00 %
29.03.2017 15:54 18,7 C 50 % 1023,2 hPa 0,0 l/m 10,2 km/h (2 Bft) W 261 2 min 0,000 mm 1,6 UV-I 587 W/m 8,1 C 17,1 C 16,1 km/h (3 Bft) 100,00 %
29.03.2017 15:56 18,8 C 47 % 1023,2 hPa 0,0 l/m 17,5 km/h (3 Bft) W-SW 256 2 min 0,000 mm 1,5 UV-I 588 W/m 7,2 C 15,2 C 24,1 km/h (4 Bft) 96,43 %
29.03.2017 15:58 18,9 C 46 % 1023,1 hPa 0,0 l/m 15,2 km/h (3 Bft) W-SW 251 2 min 0,000 mm 1,5 UV-I 610 W/m 7,0 C 15,9 C 22,5 km/h (4 Bft) 95,74 %
29.03.2017 16:00 19,1 C 46 % 1023,1 hPa 0,0 l/m 13,2 km/h (3 Bft) W-SW 250 2 min 0,000 mm 1,4 UV-I 431 W/m 7,2 C 16,6 C 29,0 km/h (5 Bft) 100,00 %
29.03.2017 16:02 19,1 C 46 % 1023,1 hPa 0,0 l/m 15,4 km/h (3 Bft) W 269 2 min 0,381 mm 1,2 UV-I 385 W/m 7,2 C 16,1 C 24,1 km/h (4 Bft) 97,73 %
29.03.2017 16:04 19,0 C 45 % 1023,0 hPa 0,0 l/m 11,0 km/h (2 Bft) W 259 0 min 0,000 mm 1,3 UV-I 265 W/m 6,8 C 17,2 C 19,3 km/h (3 Bft) 98,00 %
29.03.2017 16:06 19,0 C 47 % 1023,0 hPa 0,0 l/m 6,5 km/h (2 Bft) W-SW 240 2 min 0,000 mm 1,4 UV-I 444 W/m 7,4 C 19,0 C 16,1 km/h (3 Bft) 93,62 %
29.03.2017 16:08 19,1 C 45 % 1023,0 hPa 0,0 l/m 12,0 km/h (2 Bft) W 279 2 min 0,000 mm 1,4 UV-I 632 W/m 6,9 C 17,0 C 19,3 km/h (3 Bft) 100,00 %
29.03.2017 16:10 19,3 C 45 % 1023,0 hPa 0,0 l/m 9,7 km/h (2 Bft) W-SW 257 2 min 0,000 mm 1,4 UV-I 628 W/m 7,1 C 18,0 C 27,4 km/h (4 Bft) 100,00 %
29.03.2017 16:12 19,3 C 45 % 1022,9 hPa 0,0 l/m 11,9 km/h (2 Bft) W 277 2 min 0,000 mm 1,4 UV-I 626 W/m 7,1 C 17,3 C 17,7 km/h (3 Bft) 100,00 %
29.03.2017 16:14 19,3 C 45 % 1022,9 hPa 0,0 l/m 10,0 km/h (2 Bft) N-NW 338 2 min 0,000 mm 1,4 UV-I 598 W/m 7,1 C 17,9 C 17,7 km/h (3 Bft) 95,45 %
29.03.2017 16:16 19,3 C 46 % 1022,9 hPa 0,0 l/m 16,3 km/h (3 Bft) W 265 2 min 0,000 mm 1,4 UV-I 560 W/m 7,4 C 16,1 C 22,5 km/h (4 Bft) 95,24 %
29.03.2017 16:18 19,3 C 46 % 1022,9 hPa 0,0 l/m 12,3 km/h (3 Bft) W 279 2 min 0,000 mm 1,3 UV-I 541 W/m 7,4 C 17,1 C 20,9 km/h (4 Bft) 96,00 %
29.03.2017 16:20 19,3 C 44 % 1022,9 hPa 0,0 l/m 12,1 km/h (2 Bft) W 261 2 min 0,000 mm 1,2 UV-I 457 W/m 6,7 C 17,2 C 19,3 km/h (3 Bft) 97,14 %
29.03.2017 16:22 19,1 C 45 % 1022,8 hPa 0,0 l/m 7,7 km/h (2 Bft) W 269 0 min 0,000 mm 1,0 UV-I 231 W/m 6,9 C 18,5 C 17,7 km/h (3 Bft) 92,19 %
29.03.2017 16:24 18,8 C 45 % 1022,9 hPa 0,0 l/m 7,0 km/h (2 Bft) W-NW 292 0 min 0,000 mm 1,1 UV-I 259 W/m 6,6 C 18,5 C 12,9 km/h (3 Bft) 87,18 %
29.03.2017 16:26 18,8 C 47 % 1022,8 hPa 0,0 l/m 7,4 km/h (2 Bft) W 261 2 min 0,000 mm 1,2 UV-I 477 W/m 7,2 C 18,4 C 17,7 km/h (3 Bft) 98,11 %
29.03.2017 16:28 18,8 C 45 % 1022,8 hPa 0,0 l/m 12,7 km/h (3 Bft) W 261 2 min 0,000 mm 1,2 UV-I 456 W/m 6,6 C 16,4 C 19,3 km/h (3 Bft) 97,73 %
29.03.2017 16:30 18,9 C 46 % 1022,8 hPa 0,0 l/m 6,4 km/h (2 Bft) W-NW 297 2 min 0,000 mm 1,1 UV-I 430 W/m 7,0 C 18,9 C 14,5 km/h (3 Bft) 94,00 %
29.03.2017 16:32 18,9 C 46 % 1022,8 hPa 0,0 l/m 8,8 km/h (2 Bft) W 269 2 min 0,000 mm 1,1 UV-I 418 W/m 7,0 C 17,9 C 14,5 km/h (3 Bft) 97,87 %
29.03.2017 16:34 19,0 C 45 % 1022,8 hPa 0,0 l/m 16,3 km/h (3 Bft) W-SW 251 2 min 0,000 mm 1,1 UV-I 415 W/m 6,8 C 15,7 C 25,7 km/h (4 Bft) 95,12 %
29.03.2017 16:36 18,9 C 44 % 1022,8 hPa 0,0 l/m 16,9 km/h (3 Bft) W 261 2 min 0,000 mm 1,1 UV-I 424 W/m 6,4 C 15,5 C 24,1 km/h (4 Bft) 97,73 %
29.03.2017 16:38 18,8 C 44 % 1022,8 hPa 0,0 l/m 21,5 km/h (4 Bft) W 263 2 min 0,000 mm 1,0 UV-I 402 W/m 6,3 C 14,4 C 30,6 km/h (5 Bft) 94,34 %
29.03.2017 16:40 18,8 C 45 % 1022,8 hPa 0,0 l/m 11,7 km/h (2 Bft) W-SW 254 2 min 0,000 mm 1,0 UV-I 383 W/m 6,6 C 16,7 C 17,7 km/h (3 Bft) 93,18 %
29.03.2017 16:42 18,8 C 46 % 1022,8 hPa 0,0 l/m 11,9 km/h (2 Bft) W 264 2 min 0,000 mm 0,9 UV-I 308 W/m 6,9 C 16,7 C 22,5 km/h (4 Bft) 92,68 %
29.03.2017 16:44 18,8 C 45 % 1022,8 hPa 0,0 l/m 15,2 km/h (3 Bft) W 269 2 min 0,000 mm 0,9 UV-I 376 W/m 6,6 C 15,7 C 27,4 km/h (4 Bft) 96,23 %
29.03.2017 16:46 18,7 C 44 % 1022,7 hPa 0,0 l/m 18,4 km/h (3 Bft) W-NW 288 2 min 0,000 mm 0,9 UV-I 375 W/m 6,2 C 14,9 C 24,1 km/h (4 Bft) 100,00 %
29.03.2017 16:48 18,7 C 44 % 1022,8 hPa 0,0 l/m 21,0 km/h (4 Bft) W 267 2 min 0,000 mm 0,9 UV-I 371 W/m 6,2 C 14,3 C 32,2 km/h (5 Bft) 90,24 %
29.03.2017 16:50 18,7 C 45 % 1022,7 hPa 0,0 l/m 18,5 km/h (3 Bft) W-SW 257 2 min 0,000 mm 0,9 UV-I 371 W/m 6,5 C 14,8 C 32,2 km/h (5 Bft) 98,21 %
29.03.2017 16:52 18,7 C 45 % 1022,7 hPa 0,0 l/m 16,9 km/h (3 Bft) W 269 2 min 0,000 mm 0,8 UV-I 366 W/m 6,5 C 15,2 C 33,8 km/h (5 Bft) 97,73 %
29.03.2017 16:54 18,7 C 46 % 1022,7 hPa 0,0 l/m 20,4 km/h (4 Bft) W-NW 290 2 min 0,000 mm 0,8 UV-I 352 W/m 6,8 C 14,4 C 33,8 km/h (5 Bft) 100,00 %
29.03.2017 16:56 18,6 C 45 % 1022,7 hPa 0,0 l/m 16,2 km/h (3 Bft) W-SW 253 2 min 0,000 mm 0,8 UV-I 352 W/m 6,4 C 15,2 C 29,0 km/h (5 Bft) 98,08 %
29.03.2017 16:58 18,6 C 46 % 1022,7 hPa 0,0 l/m 19,2 km/h (3 Bft) SW 229 2 min 0,000 mm 0,8 UV-I 364 W/m 6,8 C 14,6 C 27,4 km/h (4 Bft) 100,00 %
29.03.2017 17:00 18,6 C 46 % 1022,7 hPa 0,0 l/m 20,6 km/h (4 Bft) SW 225 2 min 0,000 mm 0,8 UV-I 363 W/m 6,8 C 14,3 C 33,8 km/h (5 Bft) 94,87 %
29.03.2017 17:03 18,6 C 46 % 1022,6 hPa 0,0 l/m 14,0 km/h (3 Bft) W 259 3 min 0,356 mm 0,7 UV-I 347 W/m 6,8 C 15,8 C 20,9 km/h (4 Bft) 97,56 %
29.03.2017 17:06 18,7 C 45 % 1022,6 hPa 0,0 l/m 15,3 km/h (3 Bft) SW 228 3 min 0,000 mm 0,7 UV-I 344 W/m 6,5 C 15,6 C 24,1 km/h (4 Bft) 100,00 %
29.03.2017 17:08 18,7 C 45 % 1022,5 hPa 0,0 l/m 19,9 km/h (4 Bft) W-SW 250 2 min 0,000 mm 0,7 UV-I 326 W/m 6,5 C 14,5 C 29,0 km/h (5 Bft) 100,00 %
29.03.2017 17:10 18,7 C 46 % 1022,6 hPa 0,0 l/m 9,7 km/h (2 Bft) W 267 2 min 0,000 mm 0,7 UV-I 325 W/m 6,8 C 17,3 C 17,7 km/h (3 Bft) 92,68 %
29.03.2017 17:12 18,7 C 47 % 1022,6 hPa 0,0 l/m 10,0 km/h (2 Bft) W-NW 294 2 min 0,000 mm 0,6 UV-I 316 W/m 7,2 C 17,2 C 20,9 km/h (4 Bft) 96,43 %
29.03.2017 17:14 18,6 C 47 % 1022,6 hPa 0,0 l/m 7,6 km/h (2 Bft) W-SW 257 2 min 0,000 mm 0,6 UV-I 306 W/m 7,1 C 18,1 C 17,7 km/h (3 Bft) 97,56 %
29.03.2017 17:16 18,6 C 47 % 1022,6 hPa 0,0 l/m 9,1 km/h (2 Bft) W 268 2 min 0,000 mm 0,6 UV-I 272 W/m 7,1 C 17,4 C 14,5 km/h (3 Bft) 100,00 %
29.03.2017 17:18 18,5 C 47 % 1022,5 hPa 0,0 l/m 6,6 km/h (2 Bft) NW 311 2 min 0,000 mm 0,6 UV-I 269 W/m 7,0 C 18,4 C 14,5 km/h (3 Bft) 95,12 %
29.03.2017 17:20 18,4 C 47 % 1022,6 hPa 0,0 l/m 5,3 km/h (1 Bft) W 279 2 min 0,000 mm 0,5 UV-I 302 W/m 6,9 C 18,4 C 9,7 km/h (2 Bft) 98,21 %
29.03.2017 17:22 18,4 C 49 % 1022,5 hPa 0,0 l/m 5,3 km/h (1 Bft) W-NW 283 2 min 0,000 mm 0,5 UV-I 320 W/m 7,5 C 18,4 C 12,9 km/h (3 Bft) 97,37 %
29.03.2017 17:24 18,3 C 52 % 1022,5 hPa 0,0 l/m 6,4 km/h (2 Bft) W-NW 288 2 min 0,000 mm 0,5 UV-I 310 W/m 8,3 C 18,3 C 16,1 km/h (3 Bft) 97,73 %
29.03.2017 17:26 18,3 C 46 % 1022,4 hPa 0,0 l/m 10,1 km/h (2 Bft) W 263 2 min 0,000 mm 0,5 UV-I 281 W/m 6,5 C 16,7 C 24,1 km/h (4 Bft) 98,21 %
29.03.2017 17:28 18,2 C 47 % 1022,5 hPa 0,0 l/m 7,2 km/h (2 Bft) NW 309 2 min 0,000 mm 0,5 UV-I 277 W/m 6,7 C 17,8 C 20,9 km/h (4 Bft) 97,73 %
29.03.2017 17:30 18,2 C 47 % 1022,5 hPa 0,0 l/m 6,1 km/h (2 Bft) W 276 2 min 0,000 mm 0,5 UV-I 275 W/m 6,7 C 18,2 C 9,7 km/h (2 Bft) 98,00 %
29.03.2017 17:32 18,2 C 47 % 1022,5 hPa 0,0 l/m 7,8 km/h (2 Bft) N-NW 340 2 min 0,000 mm 0,5 UV-I 266 W/m 6,7 C 17,6 C 16,1 km/h (3 Bft) 97,44 %
29.03.2017 17:34 18,1 C 47 % 1022,5 hPa 0,0 l/m 12,0 km/h (2 Bft) NW 319 2 min 0,000 mm 0,3 UV-I 257 W/m 6,6 C 15,8 C 25,7 km/h (4 Bft) 100,00 %
29.03.2017 17:36 18,1 C 46 % 1022,5 hPa 0,0 l/m 14,5 km/h (3 Bft) W-SW 253 2 min 0,000 mm 0,0 UV-I 249 W/m 6,3 C 15,1 C 27,4 km/h (4 Bft) 100,00 %
29.03.2017 17:38 18,1 C 46 % 1022,4 hPa 0,0 l/m 8,6 km/h (2 Bft) W-SW 256 2 min 0,000 mm 0,0 UV-I 204 W/m 6,3 C 17,1 C 19,3 km/h (3 Bft) 100,00 %
29.03.2017 17:40 17,9 C 46 % 1022,5 hPa 0,0 l/m 13,6 km/h (3 Bft) W 261 2 min 0,000 mm 0,0 UV-I 214 W/m 6,1 C 15,1 C 19,3 km/h (3 Bft) 100,00 %
29.03.2017 17:42 17,9 C 46 % 1022,4 hPa 0,0 l/m 13,4 km/h (3 Bft) W 260 2 min 0,000 mm 0,0 UV-I 215 W/m 6,1 C 15,2 C 22,5 km/h (4 Bft) 100,00 %
29.03.2017 17:44 17,9 C 46 % 1022,4 hPa 0,0 l/m 6,7 km/h (2 Bft) W-SW 248 2 min 0,000 mm 0,0 UV-I 210 W/m 6,1 C 17,8 C 12,9 km/h (3 Bft) 98,21 %
29.03.2017 17:46 18,0 C 46 % 1022,3 hPa 0,0 l/m 9,6 km/h (2 Bft) W 269 2 min 0,000 mm 0,0 UV-I 198 W/m 6,2 C 16,6 C 19,3 km/h (3 Bft) 97,87 %
29.03.2017 17:48 18,0 C 46 % 1022,4 hPa 0,0 l/m 5,6 km/h (1 Bft) SW 222 2 min 0,000 mm 0,0 UV-I 197 W/m 6,2 C 18,0 C 11,3 km/h (2 Bft) 97,56 %
29.03.2017 17:50 18,0 C 45 % 1022,4 hPa 0,0 l/m 11,9 km/h (2 Bft) W-SW 256 2 min 0,000 mm 0,0 UV-I 196 W/m 5,9 C 15,8 C 17,7 km/h (3 Bft) 100,00 %
29.03.2017 17:52 17,9 C 45 % 1022,3 hPa 0,0 l/m 14,3 km/h (3 Bft) W-SW 246 2 min 0,000 mm 0,0 UV-I 188 W/m 5,8 C 14,9 C 29,0 km/h (5 Bft) 96,43 %
29.03.2017 17:54 17,9 C 45 % 1022,4 hPa 0,0 l/m 12,2 km/h (2 Bft) W-SW 254 2 min 0,000 mm 0,0 UV-I 180 W/m 5,8 C 15,5 C 20,9 km/h (4 Bft) 97,73 %
29.03.2017 17:56 17,9 C 45 % 1022,4 hPa 0,0 l/m 12,3 km/h (3 Bft) W 271 2 min 0,000 mm 0,0 UV-I 177 W/m 5,8 C 15,5 C 16,1 km/h (3 Bft) 100,00 %
29.03.2017 17:58 17,9 C 46 % 1022,4 hPa 0,0 l/m 11,2 km/h (2 Bft) SW 234 2 min 0,000 mm 0,0 UV-I 171 W/m 6,1 C 15,9 C 19,3 km/h (3 Bft) 97,37 %
29.03.2017 18:00 17,9 C 46 % 1022,4 hPa 0,0 l/m 9,1 km/h (2 Bft) W-SW 242 2 min 0,000 mm 0,0 UV-I 172 W/m 6,1 C 16,7 C 20,9 km/h (4 Bft) 100,00 %
29.03.2017 18:02 17,9 C 46 % 1022,4 hPa 0,0 l/m 12,2 km/h (2 Bft) W-SW 253 2 min 0,228 mm 0,0 UV-I 170 W/m 6,1 C 15,5 C 19,3 km/h (3 Bft) 88,68 %
29.03.2017 18:04 17,9 C 46 % 1022,4 hPa 0,0 l/m 10,4 km/h (2 Bft) W-SW 257 2 min 0,000 mm 0,0 UV-I 167 W/m 6,1 C 16,2 C 19,3 km/h (3 Bft) 97,37 %
29.03.2017 18:06 17,9 C 44 % 1022,4 hPa 0,0 l/m 10,0 km/h (2 Bft) W 262 2 min 0,000 mm 0,0 UV-I 165 W/m 5,5 C 16,3 C 19,3 km/h (3 Bft) 98,11 %
29.03.2017 18:08 17,8 C 44 % 1022,4 hPa 0,0 l/m 12,7 km/h (3 Bft) W-NW 292 2 min 0,000 mm 0,0 UV-I 148 W/m 5,4 C 15,3 C 19,3 km/h (3 Bft) 97,87 %
29.03.2017 18:10 17,8 C 45 % 1022,4 hPa 0,0 l/m 7,5 km/h (2 Bft) W 265 2 min 0,000 mm 0,0 UV-I 139 W/m 5,7 C 17,3 C 11,3 km/h (2 Bft) 92,68 %
29.03.2017 18:12 17,7 C 45 % 1022,4 hPa 0,0 l/m 7,7 km/h (2 Bft) W-SW 258 2 min 0,000 mm 0,0 UV-I 137 W/m 5,6 C 17,1 C 14,5 km/h (3 Bft) 96,36 %
29.03.2017 18:14 17,7 C 46 % 1022,4 hPa 0,0 l/m 6,7 km/h (2 Bft) W 264 2 min 0,000 mm 0,0 UV-I 134 W/m 5,9 C 17,6 C 12,9 km/h (3 Bft) 94,44 %
29.03.2017 18:16 17,7 C 46 % 1022,4 hPa 0,0 l/m 8,6 km/h (2 Bft) W-SW 250 2 min 0,000 mm 0,0 UV-I 140 W/m 5,9 C 16,7 C 16,1 km/h (3 Bft) 98,00 %
29.03.2017 18:18 17,7 C 46 % 1022,4 hPa 0,0 l/m 7,5 km/h (2 Bft) W 279 2 min 0,000 mm 0,0 UV-I 140 W/m 5,9 C 17,2 C 12,9 km/h (3 Bft) 96,00 %
29.03.2017 18:20 17,7 C 46 % 1022,4 hPa 0,0 l/m 8,8 km/h (2 Bft) W-NW 294 2 min 0,000 mm 0,0 UV-I 137 W/m 5,9 C 16,6 C 16,1 km/h (3 Bft) 96,00 %
29.03.2017 18:22 17,6 C 46 % 1022,4 hPa 0,0 l/m 5,4 km/h (1 Bft) W-NW 296 2 min 0,000 mm 0,0 UV-I 126 W/m 5,8 C 17,6 C 12,9 km/h (3 Bft) 95,12 %
29.03.2017 18:24 17,6 C 46 % 1022,4 hPa 0,0 l/m 8,3 km/h (2 Bft) W 273 2 min 0,000 mm 0,0 UV-I 121 W/m 5,8 C 16,7 C 16,1 km/h (3 Bft) 97,73 %
29.03.2017 18:26 17,5 C 46 % 1022,5 hPa 0,0 l/m 8,6 km/h (2 Bft) W 265 2 min 0,000 mm 0,0 UV-I 117 W/m 5,8 C 16,5 C 17,7 km/h (3 Bft) 96,00 %
29.03.2017 18:28 17,5 C 46 % 1022,4 hPa 0,0 l/m 6,3 km/h (2 Bft) W 277 2 min 0,000 mm 0,0 UV-I 111 W/m 5,8 C 17,5 C 14,5 km/h (3 Bft) 98,00 %
29.03.2017 18:30 17,4 C 47 % 1022,5 hPa 0,0 l/m 10,5 km/h (2 Bft) W 279 2 min 0,000 mm 0,0 UV-I 103 W/m 6,0 C 15,6 C 17,7 km/h (3 Bft) 98,00 %
29.03.2017 18:32 17,3 C 48 % 1022,5 hPa 0,0 l/m 6,7 km/h (2 Bft) W 281 2 min 0,000 mm 0,0 UV-I 98 W/m 6,2 C 17,2 C 16,1 km/h (3 Bft) 95,45 %
29.03.2017 18:34 17,3 C 48 % 1022,5 hPa 0,0 l/m 6,7 km/h (2 Bft) W-NW 295 2 min 0,000 mm 0,0 UV-I 94 W/m 6,2 C 17,2 C 12,9 km/h (3 Bft) 92,31 %
29.03.2017 18:36 17,2 C 47 % 1022,5 hPa 0,0 l/m 9,5 km/h (2 Bft) W 265 2 min 0,000 mm 0,0 UV-I 89 W/m 5,8 C 15,8 C 19,3 km/h (3 Bft) 95,38 %
29.03.2017 18:38 17,2 C 48 % 1022,5 hPa 0,0 l/m 5,9 km/h (2 Bft) NW 307 2 min 0,000 mm 0,0 UV-I 85 W/m 6,1 C 17,2 C 12,9 km/h (3 Bft) 96,23 %
29.03.2017 18:40 17,2 C 48 % 1022,5 hPa 0,0 l/m 7,3 km/h (2 Bft) W 273 2 min 0,000 mm 0,0 UV-I 81 W/m 6,1 C 16,8 C 14,5 km/h (3 Bft) 97,67 %
29.03.2017 18:42 17,1 C 48 % 1022,5 hPa 0,0 l/m 6,8 km/h (2 Bft) W-SW 253 2 min 0,000 mm 0,0 UV-I 77 W/m 6,0 C 16,9 C 14,5 km/h (3 Bft) 98,00 %
29.03.2017 18:44 17,1 C 48 % 1022,5 hPa 0,0 l/m 8,4 km/h (2 Bft) W 259 2 min 0,000 mm 0,0 UV-I 75 W/m 6,0 C 16,1 C 14,5 km/h (3 Bft) 100,00 %
29.03.2017 18:46 17,0 C 48 % 1022,5 hPa 0,0 l/m 7,3 km/h (2 Bft) W-SW 256 2 min 0,000 mm 0,0 UV-I 71 W/m 5,9 C 16,5 C 11,3 km/h (2 Bft) 100,00 %
29.03.2017 18:48 16,9 C 48 % 1022,5 hPa 0,0 l/m 11,4 km/h (2 Bft) W 278 2 min 0,000 mm 0,0 UV-I 70 W/m 5,8 C 14,7 C 17,7 km/h (3 Bft) 98,57 %
29.03.2017 18:50 16,9 C 48 % 1022,5 hPa 0,0 l/m 10,5 km/h (2 Bft) W 269 2 min 0,000 mm 0,0 UV-I 69 W/m 5,8 C 15,0 C 19,3 km/h (3 Bft) 100,00 %
29.03.2017 18:52 16,8 C 48 % 1022,6 hPa 0,0 l/m 7,7 km/h (2 Bft) W 263 2 min 0,000 mm 0,0 UV-I 67 W/m 5,7 C 16,1 C 14,5 km/h (3 Bft) 95,74 %
29.03.2017 18:54 16,8 C 47 % 1022,6 hPa 0,0 l/m 9,9 km/h (2 Bft) W 261 2 min 0,000 mm 0,0 UV-I 63 W/m 5,4 C 15,1 C 16,1 km/h (3 Bft) 95,24 %
29.03.2017 18:56 16,8 C 48 % 1022,6 hPa 0,0 l/m 7,1 km/h (2 Bft) W-NW 288 2 min 0,000 mm 0,0 UV-I 59 W/m 5,7 C 16,4 C 16,1 km/h (3 Bft) 98,00 %
29.03.2017 18:58 16,7 C 49 % 1022,5 hPa 0,0 l/m 7,9 km/h (2 Bft) W 273 2 min 0,000 mm 0,0 UV-I 56 W/m 5,9 C 15,9 C 12,9 km/h (3 Bft) 96,00 %
29.03.2017 19:00 16,7 C 48 % 1022,6 hPa 0,0 l/m 7,2 km/h (2 Bft) W-NW 290 2 min 0,000 mm 0,0 UV-I 53 W/m 5,6 C 16,3 C 12,9 km/h (3 Bft) 97,37 %
29.03.2017 19:02 16,7 C 48 % 1022,6 hPa 0,0 l/m 8,9 km/h (2 Bft) W 269 2 min 0,127 mm 0,0 UV-I 46 W/m 5,6 C 15,5 C 12,9 km/h (3 Bft) 93,22 %
29.03.2017 19:04 16,6 C 48 % 1022,6 hPa 0,0 l/m 8,4 km/h (2 Bft) W 263 2 min 0,000 mm 0,0 UV-I 42 W/m 5,5 C 15,6 C 12,9 km/h (3 Bft) 97,56 %
29.03.2017 19:06 16,6 C 48 % 1022,7 hPa 0,0 l/m 4,9 km/h (1 Bft) W 279 2 min 0,000 mm 0,0 UV-I 36 W/m 5,5 C 16,6 C 6,4 km/h (2 Bft) 96,00 %
29.03.2017 19:08 16,5 C 49 % 1022,7 hPa 0,0 l/m 6,0 km/h (2 Bft) W 264 2 min 0,000 mm 0,0 UV-I 31 W/m 5,8 C 16,5 C 12,9 km/h (3 Bft) 97,37 %
29.03.2017 19:10 16,4 C 49 % 1022,6 hPa 0,0 l/m 6,0 km/h (2 Bft) W 277 2 min 0,000 mm 0,0 UV-I 26 W/m 5,7 C 16,4 C 14,5 km/h (3 Bft) 96,43 %
29.03.2017 19:12 16,4 C 49 % 1022,7 hPa 0,0 l/m 5,4 km/h (1 Bft) W 270 2 min 0,000 mm 0,0 UV-I 28 W/m 5,7 C 16,4 C 8,0 km/h (2 Bft) 97,14 %
29.03.2017 19:14 16,3 C 50 % 1022,6 hPa 0,0 l/m 5,7 km/h (1 Bft) W-SW 254 2 min 0,000 mm 0,0 UV-I 26 W/m 5,9 C 16,3 C 11,3 km/h (2 Bft) 98,31 %
29.03.2017 19:16 16,2 C 50 % 1022,6 hPa 0,0 l/m 7,9 km/h (2 Bft) W 267 2 min 0,000 mm 0,0 UV-I 23 W/m 5,8 C 15,4 C 11,3 km/h (2 Bft) 97,37 %
29.03.2017 19:18 16,1 C 50 % 1022,7 hPa 0,0 l/m 7,0 km/h (2 Bft) W-NW 284 2 min 0,000 mm 0,0 UV-I 19 W/m 5,7 C 15,8 C 12,9 km/h (3 Bft) 90,57 %
29.03.2017 19:20 16,1 C 50 % 1022,7 hPa 0,0 l/m 8,6 km/h (2 Bft) W 265 0 min 0,000 mm 0,0 UV-I 15 W/m 5,7 C 15,0 C 14,5 km/h (3 Bft) 95,12 %
29.03.2017 19:22 16,1 C 50 % 1022,7 hPa 0,0 l/m 5,5 km/h (1 Bft) NW 320 0 min 0,000 mm 0,0 UV-I 13 W/m 5,7 C 16,1 C 11,3 km/h (2 Bft) 95,12 %
29.03.2017 19:24 15,9 C 51 % 1022,7 hPa 0,0 l/m 6,6 km/h (2 Bft) W-SW 242 0 min 0,000 mm 0,0 UV-I 11 W/m 5,8 C 15,8 C 12,9 km/h (3 Bft) 94,92 %
29.03.2017 19:26 15,8 C 51 % 1022,9 hPa 0,0 l/m 6,4 km/h (2 Bft) W 271 0 min 0,000 mm 0,0 UV-I 10 W/m 5,7 C 15,8 C 11,3 km/h (2 Bft) 100,00 %
29.03.2017 19:28 15,8 C 51 % 1022,8 hPa 0,0 l/m 6,4 km/h (2 Bft) W-NW 284 0 min 0,000 mm 0,0 UV-I 8 W/m 5,7 C 15,8 C 12,9 km/h (3 Bft) 95,31 %
29.03.2017 19:30 15,8 C 51 % 1022,8 hPa 0,0 l/m 6,0 km/h (2 Bft) W 269 0 min 0,000 mm 0,0 UV-I 7 W/m 5,7 C 15,8 C 9,7 km/h (2 Bft) 93,75 %
29.03.2017 19:32 15,8 C 51 % 1022,8 hPa 0,0 l/m 8,4 km/h (2 Bft) W 281 0 min 0,000 mm 0,0 UV-I 7 W/m 5,7 C 14,7 C 12,9 km/h (3 Bft) 90,24 %
29.03.2017 19:34 15,8 C 51 % 1022,8 hPa 0,0 l/m 7,8 km/h (2 Bft) W 259 0 min 0,000 mm 0,0 UV-I 5 W/m 5,7 C 15,0 C 11,3 km/h (2 Bft) 94,64 %
29.03.2017 19:36 15,8 C 51 % 1022,9 hPa 0,0 l/m 6,8 km/h (2 Bft) W 259 0 min 0,000 mm 0,0 UV-I 5 W/m 5,7 C 15,6 C 11,3 km/h (2 Bft) 97,73 %
29.03.2017 19:38 15,7 C 51 % 1022,9 hPa 0,0 l/m 6,4 km/h (2 Bft) W 265 0 min 0,000 mm 0,0 UV-I 5 W/m 5,6 C 15,7 C 11,3 km/h (2 Bft) 96,55 %
29.03.2017 19:40 15,7 C 51 % 1022,9 hPa 0,0 l/m 7,7 km/h (2 Bft) W 263 0 min 0,000 mm 0,0 UV-I 5 W/m 5,6 C 15,0 C 12,9 km/h (3 Bft) 98,46 %
29.03.2017 19:42 15,7 C 51 % 1022,9 hPa 0,0 l/m 6,4 km/h (2 Bft) W 276 0 min 0,000 mm 0,0 UV-I 5 W/m 5,6 C 15,7 C 11,3 km/h (2 Bft) 93,62 %
29.03.2017 19:44 15,7 C 51 % 1023,0 hPa 0,0 l/m 6,0 km/h (2 Bft) W 263 0 min 0,000 mm 0,0 UV-I 0 W/m 5,6 C 15,7 C 9,7 km/h (2 Bft) 94,00 %
29.03.2017 19:46 15,6 C 51 % 1023,0 hPa 0,0 l/m 5,6 km/h (1 Bft) W 269 0 min 0,000 mm 0,0 UV-I 0 W/m 5,5 C 15,6 C 6,4 km/h (2 Bft) 96,00 %
29.03.2017 19:48 15,5 C 52 % 1023,0 hPa 0,0 l/m 4,7 km/h (1 Bft) W 269 0 min 0,000 mm 0,0 UV-I 0 W/m 5,7 C 15,5 C 6,4 km/h (2 Bft) 95,74 %
29.03.2017 19:50 15,4 C 52 % 1023,0 hPa 0,0 l/m 6,0 km/h (2 Bft) W-SW 251 0 min 0,000 mm 0,0 UV-I 0 W/m 5,6 C 15,4 C 12,9 km/h (3 Bft) 97,37 %
29.03.2017 19:52 15,3 C 52 % 1023,1 hPa 0,0 l/m 4,6 km/h (1 Bft) W-SW 249 0 min 0,000 mm 0,0 UV-I 0 W/m 5,5 C 15,3 C 8,0 km/h (2 Bft) 98,11 %
29.03.2017 19:54 15,3 C 52 % 1023,1 hPa 0,0 l/m 4,7 km/h (1 Bft) W-SW 248 0 min 0,000 mm 0,0 UV-I 0 W/m 5,5 C 15,3 C 8,0 km/h (2 Bft) 93,62 %
29.03.2017 19:56 15,3 C 52 % 1023,1 hPa 0,0 l/m 7,5 km/h (2 Bft) W-SW 257 0 min 0,000 mm 0,0 UV-I 0 W/m 5,5 C 14,7 C 12,9 km/h (3 Bft) 93,62 %
29.03.2017 19:58 15,3 C 52 % 1023,1 hPa 0,0 l/m 5,6 km/h (1 Bft) W 261 0 min 0,000 mm 0,0 UV-I 0 W/m 5,5 C 15,3 C 9,7 km/h (2 Bft) 92,68 %
29.03.2017 20:00 15,2 C 52 % 1023,1 hPa 0,0 l/m 5,7 km/h (1 Bft) W 262 0 min 0,000 mm 0,0 UV-I 0 W/m 5,4 C 15,2 C 6,4 km/h (2 Bft) 97,56 %
29.03.2017 20:02 15,2 C 53 % 1023,2 hPa 0,0 l/m 6,1 km/h (2 Bft) W-SW 246 0 min 0,051 mm 0,0 UV-I 0 W/m 5,7 C 15,2 C 11,3 km/h (2 Bft) 96,00 %
29.03.2017 20:04 15,1 C 53 % 1023,2 hPa 0,0 l/m 5,8 km/h (2 Bft) W 265 0 min 0,000 mm 0,0 UV-I 0 W/m 5,6 C 15,1 C 11,3 km/h (2 Bft) 96,43 %
29.03.2017 20:06 15,0 C 53 % 1023,2 hPa 0,0 l/m 6,8 km/h (2 Bft) W 271 0 min 0,000 mm 0,0 UV-I 0 W/m 5,5 C 14,8 C 12,9 km/h (3 Bft) 97,56 %
29.03.2017 20:08 14,9 C 53 % 1023,2 hPa 0,0 l/m 5,6 km/h (1 Bft) W 280 0 min 0,000 mm 0,0 UV-I 0 W/m 5,4 C 14,9 C 9,7 km/h (2 Bft) 100,00 %
29.03.2017 20:10 14,8 C 53 % 1023,3 hPa 0,0 l/m 7,3 km/h (2 Bft) W 273 0 min 0,000 mm 0,0 UV-I 0 W/m 5,3 C 14,3 C 11,3 km/h (2 Bft) 98,00 %
29.03.2017 20:12 14,8 C 53 % 1023,3 hPa 0,0 l/m 6,9 km/h (2 Bft) W 270 0 min 0,000 mm 0,0 UV-I 0 W/m 5,3 C 14,5 C 12,9 km/h (3 Bft) 97,22 %
29.03.2017 20:14 14,8 C 53 % 1023,3 hPa 0,0 l/m 7,1 km/h (2 Bft) W 269 0 min 0,000 mm 0,0 UV-I 0 W/m 5,3 C 14,4 C 12,9 km/h (3 Bft) 96,23 %
29.03.2017 20:16 14,7 C 54 % 1023,3 hPa 0,0 l/m 6,3 km/h (2 Bft) W 261 0 min 0,000 mm 0,0 UV-I 0 W/m 5,5 C 14,7 C 9,7 km/h (2 Bft) 93,62 %
29.03.2017 20:18 14,6 C 54 % 1023,4 hPa 0,0 l/m 7,6 km/h (2 Bft) W 266 0 min 0,000 mm 0,0 UV-I 0 W/m 5,4 C 13,9 C 11,3 km/h (2 Bft) 96,00 %
29.03.2017 20:20 14,6 C 53 % 1023,4 hPa 0,0 l/m 7,8 km/h (2 Bft) W-SW 258 0 min 0,000 mm 0,0 UV-I 0 W/m 5,1 C 13,8 C 11,3 km/h (2 Bft) 94,00 %
29.03.2017 20:22 14,6 C 54 % 1023,4 hPa 0,0 l/m 7,5 km/h (2 Bft) W-SW 254 0 min 0,000 mm 0,0 UV-I 0 W/m 5,4 C 14,0 C 11,3 km/h (2 Bft) 100,00 %
29.03.2017 20:24 14,6 C 54 % 1023,4 hPa 0,0 l/m 9,0 km/h (2 Bft) W-SW 254 0 min 0,000 mm 0,0 UV-I 0 W/m 5,4 C 13,2 C 12,9 km/h (3 Bft) 91,49 %
29.03.2017 20:26 14,5 C 54 % 1023,4 hPa 0,0 l/m 8,6 km/h (2 Bft) W-SW 247 0 min 0,000 mm 0,0 UV-I 0 W/m 5,3 C 13,3 C 11,3 km/h (2 Bft) 95,74 %
29.03.2017 20:28 14,5 C 54 % 1023,4 hPa 0,0 l/m 7,9 km/h (2 Bft) W-SW 249 0 min 0,000 mm 0,0 UV-I 0 W/m 5,3 C 13,6 C 12,9 km/h (3 Bft) 95,74 %
29.03.2017 20:30 14,4 C 54 % 1023,4 hPa 0,0 l/m 9,0 km/h (2 Bft) W-SW 244 0 min 0,000 mm 0,0 UV-I 0 W/m 5,2 C 12,9 C 14,5 km/h (3 Bft) 95,74 %
29.03.2017 20:32 14,4 C 54 % 1023,4 hPa 0,0 l/m 8,4 km/h (2 Bft) W-SW 254 0 min 0,000 mm 0,0 UV-I 0 W/m 5,2 C 13,3 C 12,9 km/h (3 Bft) 95,12 %
29.03.2017 20:34 14,4 C 54 % 1023,5 hPa 0,0 l/m 7,9 km/h (2 Bft) W-SW 257 0 min 0,000 mm 0,0 UV-I 0 W/m 5,2 C 13,5 C 14,5 km/h (3 Bft) 96,61 %
29.03.2017 20:36 14,4 C 54 % 1023,5 hPa 0,0 l/m 7,2 km/h (2 Bft) W-SW 255 0 min 0,000 mm 0,0 UV-I 0 W/m 5,2 C 13,9 C 12,9 km/h (3 Bft) 95,12 %
29.03.2017 20:38 14,4 C 54 % 1023,6 hPa 0,0 l/m 7,4 km/h (2 Bft) W-SW 255 0 min 0,000 mm 0,0 UV-I 0 W/m 5,2 C 13,8 C 11,3 km/h (2 Bft) 96,00 %
29.03.2017 20:40 14,3 C 54 % 1023,5 hPa 0,0 l/m 8,0 km/h (2 Bft) W-SW 254 0 min 0,000 mm 0,0 UV-I 0 W/m 5,1 C 13,4 C 11,3 km/h (2 Bft) 93,18 %
29.03.2017 20:42 14,3 C 54 % 1023,6 hPa 0,0 l/m 8,9 km/h (2 Bft) W-SW 246 0 min 0,000 mm 0,0 UV-I 0 W/m 5,1 C 12,9 C 14,5 km/h (3 Bft) 92,00 %
29.03.2017 20:44 14,3 C 54 % 1023,5 hPa 0,0 l/m 8,3 km/h (2 Bft) W-SW 255 0 min 0,000 mm 0,0 UV-I 0 W/m 5,1 C 13,2 C 12,9 km/h (3 Bft) 97,87 %
29.03.2017 20:46 14,3 C 54 % 1023,5 hPa 0,0 l/m 6,4 km/h (2 Bft) W-SW 254 0 min 0,000 mm 0,0 UV-I 0 W/m 5,1 C 14,3 C 9,7 km/h (2 Bft) 98,00 %
29.03.2017 20:48 14,3 C 54 % 1023,6 hPa 0,0 l/m 7,5 km/h (2 Bft) W-SW 239 0 min 0,000 mm 0,0 UV-I 0 W/m 5,1 C 13,7 C 11,3 km/h (2 Bft) 97,22 %
29.03.2017 20:50 14,3 C 54 % 1023,6 hPa 0,0 l/m 8,4 km/h (2 Bft) W-SW 255 0 min 0,000 mm 0,0 UV-I 0 W/m 5,1 C 13,1 C 12,9 km/h (3 Bft) 98,18 %
29.03.2017 20:52 14,3 C 54 % 1023,7 hPa 0,0 l/m 7,3 km/h (2 Bft) W-SW 253 0 min 0,000 mm 0,0 UV-I 0 W/m 5,1 C 13,8 C 11,3 km/h (2 Bft) 100,00 %
29.03.2017 20:54 14,2 C 54 % 1023,7 hPa 0,0 l/m 7,7 km/h (2 Bft) W-SW 242 0 min 0,000 mm 0,0 UV-I 0 W/m 5,0 C 13,4 C 12,9 km/h (3 Bft) 100,00 %
29.03.2017 20:56 14,2 C 54 % 1023,8 hPa 0,0 l/m 6,9 km/h (2 Bft) W-SW 258 0 min 0,000 mm 0,0 UV-I 0 W/m 5,0 C 13,9 C 12,9 km/h (3 Bft) 96,77 %
29.03.2017 20:58 14,2 C 54 % 1023,8 hPa 0,0 l/m 7,2 km/h (2 Bft) W-SW 251 0 min 0,000 mm 0,0 UV-I 0 W/m 5,0 C 13,7 C 11,3 km/h (2 Bft) 100,00 %
29.03.2017 21:00 14,2 C 54 % 1023,8 hPa 0,0 l/m 5,3 km/h (1 Bft) W-SW 246 0 min 0,000 mm 0,0 UV-I 0 W/m 5,0 C 14,2 C 8,0 km/h (2 Bft) 94,74 %
29.03.2017 21:02 14,2 C 54 % 1023,8 hPa 0,0 l/m 6,2 km/h (2 Bft) W-SW 246 0 min 0,051 mm 0,0 UV-I 0 W/m 5,0 C 14,2 C 11,3 km/h (2 Bft) 96,55 %
29.03.2017 21:04 14,2 C 55 % 1023,8 hPa 0,0 l/m 5,6 km/h (1 Bft) W-SW 240 0 min 0,000 mm 0,0 UV-I 0 W/m 5,3 C 14,2 C 8,0 km/h (2 Bft) 100,00 %
29.03.2017 21:06 14,2 C 55 % 1023,8 hPa 0,0 l/m 6,7 km/h (2 Bft) W-SW 245 0 min 0,000 mm 0,0 UV-I 0 W/m 5,3 C 14,0 C 11,3 km/h (2 Bft) 98,46 %
29.03.2017 21:08 14,1 C 55 % 1023,7 hPa 0,0 l/m 7,4 km/h (2 Bft) W-SW 245 0 min 0,000 mm 0,0 UV-I 0 W/m 5,2 C 13,5 C 11,3 km/h (2 Bft) 100,00 %
29.03.2017 21:10 14,0 C 55 % 1023,8 hPa 0,0 l/m 6,6 km/h (2 Bft) W-SW 251 0 min 0,000 mm 0,0 UV-I 0 W/m 5,1 C 13,9 C 11,3 km/h (2 Bft) 98,11 %
29.03.2017 21:12 13,9 C 56 % 1023,8 hPa 0,0 l/m 6,8 km/h (2 Bft) SW 236 0 min 0,000 mm 0,0 UV-I 0 W/m 5,3 C 13,7 C 11,3 km/h (2 Bft) 97,56 %
29.03.2017 21:14 13,8 C 57 % 1023,8 hPa 0,0 l/m 5,6 km/h (1 Bft) SW 233 0 min 0,000 mm 0,0 UV-I 0 W/m 5,4 C 13,8 C 8,0 km/h (2 Bft) 98,00 %
29.03.2017 21:16 13,7 C 57 % 1023,8 hPa 0,0 l/m 6,0 km/h (2 Bft) SW 225 0 min 0,000 mm 0,0 UV-I 0 W/m 5,3 C 13,7 C 9,7 km/h (2 Bft) 95,12 %
29.03.2017 21:18 13,6 C 58 % 1023,8 hPa 0,0 l/m 6,4 km/h (2 Bft) SW 227 0 min 0,000 mm 0,0 UV-I 0 W/m 5,5 C 13,6 C 9,7 km/h (2 Bft) 98,11 %
29.03.2017 21:20 13,4 C 58 % 1023,9 hPa 0,0 l/m 6,3 km/h (2 Bft) SW 236 0 min 0,000 mm 0,0 UV-I 0 W/m 5,3 C 13,4 C 8,0 km/h (2 Bft) 100,00 %
29.03.2017 21:22 13,3 C 58 % 1023,8 hPa 0,0 l/m 6,1 km/h (2 Bft) SW 229 0 min 0,000 mm 0,0 UV-I 0 W/m 5,2 C 13,3 C 8,0 km/h (2 Bft) 94,00 %
29.03.2017 21:24 13,3 C 59 % 1023,9 hPa 0,0 l/m 5,6 km/h (1 Bft) W-SW 238 0 min 0,000 mm 0,0 UV-I 0 W/m 5,5 C 13,3 C 8,0 km/h (2 Bft) 95,74 %
29.03.2017 21:26 13,2 C 59 % 1023,9 hPa 0,0 l/m 6,7 km/h (2 Bft) W-SW 238 0 min 0,000 mm 0,0 UV-I 0 W/m 5,4 C 13,0 C 9,7 km/h (2 Bft) 100,00 %
29.03.2017 21:28 13,1 C 60 % 1023,9 hPa 0,0 l/m 5,9 km/h (2 Bft) SW 220 0 min 0,000 mm 0,0 UV-I 0 W/m 5,5 C 13,1 C 8,0 km/h (2 Bft) 98,31 %
29.03.2017 21:30 12,9 C 60 % 1023,9 hPa 0,0 l/m 5,8 km/h (2 Bft) SW 220 0 min 0,000 mm 0,0 UV-I 0 W/m 5,3 C 12,9 C 8,0 km/h (2 Bft) 96,72 %
29.03.2017 21:32 12,8 C 62 % 1023,9 hPa 0,0 l/m 6,3 km/h (2 Bft) SW 219 0 min 0,000 mm 0,0 UV-I 0 W/m 5,7 C 12,8 C 8,0 km/h (2 Bft) 100,00 %
29.03.2017 21:34 12,6 C 63 % 1023,9 hPa 0,0 l/m 6,7 km/h (2 Bft) S-SW 210 0 min 0,000 mm 0,0 UV-I 0 W/m 5,7 C 12,4 C 9,7 km/h (2 Bft) 97,56 %
29.03.2017 21:36 12,3 C 63 % 1023,9 hPa 0,0 l/m 6,5 km/h (2 Bft) S-SW 211 0 min 0,000 mm 0,0 UV-I 0 W/m 5,5 C 12,3 C 9,7 km/h (2 Bft) 98,11 %
29.03.2017 21:38 12,2 C 64 % 1023,9 hPa 0,0 l/m 5,6 km/h (1 Bft) S-SW 211 0 min 0,000 mm 0,0 UV-I 0 W/m 5,6 C 12,2 C 9,7 km/h (2 Bft) 98,00 %
29.03.2017 21:40 12,1 C 65 % 1023,9 hPa 0,0 l/m 6,2 km/h (2 Bft) S-SW 212 0 min 0,000 mm 0,0 UV-I 0 W/m 5,7 C 12,1 C 8,0 km/h (2 Bft) 97,50 %
29.03.2017 21:42 12,0 C 65 % 1023,9 hPa 0,0 l/m 7,0 km/h (2 Bft) S-SW 203 0 min 0,000 mm 0,0 UV-I 0 W/m 5,6 C 11,6 C 9,7 km/h (2 Bft) 100,00 %
29.03.2017 21:44 12,0 C 65 % 1023,9 hPa 0,0 l/m 6,0 km/h (2 Bft) S-SW 203 0 min 0,000 mm 0,0 UV-I 0 W/m 5,6 C 12,0 C 8,0 km/h (2 Bft) 100,00 %
29.03.2017 21:46 12,0 C 65 % 1023,9 hPa 0,0 l/m 5,3 km/h (1 Bft) S-SW 202 0 min 0,000 mm 0,0 UV-I 0 W/m 5,6 C 12,0 C 6,4 km/h (2 Bft) 95,45 %
29.03.2017 21:48 12,0 C 65 % 1023,9 hPa 0,0 l/m 6,5 km/h (2 Bft) S-SW 202 0 min 0,000 mm 0,0 UV-I 0 W/m 5,6 C 12,0 C 8,0 km/h (2 Bft) 96,00 %
29.03.2017 21:50 11,9 C 66 % 1023,9 hPa 0,0 l/m 6,8 km/h (2 Bft) S-SW 194 0 min 0,000 mm 0,0 UV-I 0 W/m 5,8 C 11,6 C 8,0 km/h (2 Bft) 93,62 %
29.03.2017 21:52 11,8 C 66 % 1023,9 hPa 0,0 l/m 7,1 km/h (2 Bft) S-SW 198 0 min 0,000 mm 0,0 UV-I 0 W/m 5,7 C 11,3 C 11,3 km/h (2 Bft) 100,00 %
29.03.2017 21:54 11,8 C 66 % 1024,0 hPa 0,0 l/m 6,8 km/h (2 Bft) S-SW 205 0 min 0,000 mm 0,0 UV-I 0 W/m 5,7 C 11,5 C 8,0 km/h (2 Bft) 98,11 %
29.03.2017 21:56 11,6 C 67 % 1024,0 hPa 0,0 l/m 6,4 km/h (2 Bft) SW 215 0 min 0,000 mm 0,0 UV-I 0 W/m 5,7 C 11,6 C 9,7 km/h (2 Bft) 97,37 %
29.03.2017 21:58 11,6 C 67 % 1024,0 hPa 0,0 l/m 5,9 km/h (2 Bft) S-SW 212 0 min 0,000 mm 0,0 UV-I 0 W/m 5,7 C 11,6 C 8,0 km/h (2 Bft) 100,00 %
29.03.2017 22:00 11,5 C 67 % 1024,0 hPa 0,0 l/m 6,2 km/h (2 Bft) S-SW 212 0 min 0,000 mm 0,0 UV-I 0 W/m 5,6 C 11,5 C 8,0 km/h (2 Bft) 96,00 %
29.03.2017 22:02 11,4 C 68 % 1024,1 hPa 0,0 l/m 6,1 km/h (2 Bft) S-SW 212 0 min 0,025 mm 0,0 UV-I 0 W/m 5,7 C 11,4 C 8,0 km/h (2 Bft) 95,12 %
29.03.2017 22:04 11,4 C 68 % 1024,1 hPa 0,0 l/m 6,4 km/h (2 Bft) S-SW 204 0 min 0,000 mm 0,0 UV-I 0 W/m 5,7 C 11,4 C 9,7 km/h (2 Bft) 100,00 %
29.03.2017 22:06 11,3 C 68 % 1024,1 hPa 0,0 l/m 6,9 km/h (2 Bft) S-SW 207 0 min 0,000 mm 0,0 UV-I 0 W/m 5,6 C 11,0 C 11,3 km/h (2 Bft) 95,83 %
29.03.2017 22:08 11,3 C 68 % 1024,1 hPa 0,0 l/m 7,5 km/h (2 Bft) SW 215 0 min 0,000 mm 0,0 UV-I 0 W/m 5,6 C 10,5 C 11,3 km/h (2 Bft) 96,88 %
29.03.2017 22:10 11,3 C 68 % 1024,1 hPa 0,0 l/m 6,9 km/h (2 Bft) SW 227 0 min 0,000 mm 0,0 UV-I 0 W/m 5,6 C 11,0 C 9,7 km/h (2 Bft) 98,11 %
29.03.2017 22:12 11,3 C 69 % 1024,1 hPa 0,0 l/m 6,4 km/h (2 Bft) S-SW 213 0 min 0,000 mm 0,0 UV-I 0 W/m 5,8 C 11,3 C 9,7 km/h (2 Bft) 100,00 %
29.03.2017 22:14 11,3 C 69 % 1024,2 hPa 0,0 l/m 6,2 km/h (2 Bft) S-SW 209 0 min 0,000 mm 0,0 UV-I 0 W/m 5,8 C 11,3 C 9,7 km/h (2 Bft) 93,62 %
29.03.2017 22:16 11,2 C 69 % 1024,2 hPa 0,0 l/m 7,0 km/h (2 Bft) S-SW 213 0 min 0,000 mm 0,0 UV-I 0 W/m 5,7 C 10,8 C 9,7 km/h (2 Bft) 95,35 %
29.03.2017 22:18 11,1 C 69 % 1024,2 hPa 0,0 l/m 4,5 km/h (1 Bft) S-SW 213 0 min 0,000 mm 0,0 UV-I 0 W/m 5,6 C 11,1 C 8,0 km/h (2 Bft) 98,11 %
29.03.2017 22:20 11,0 C 70 % 1024,2 hPa 0,0 l/m 6,0 km/h (2 Bft) S-SW 196 0 min 0,000 mm 0,0 UV-I 0 W/m 5,7 C 11,0 C 9,7 km/h (2 Bft) 100,00 %
29.03.2017 22:22 11,1 C 70 % 1024,2 hPa 0,0 l/m 5,9 km/h (2 Bft) SW 220 0 min 0,000 mm 0,0 UV-I 0 W/m 5,8 C 11,1 C 8,0 km/h (2 Bft) 98,25 %
29.03.2017 22:24 11,1 C 70 % 1024,2 hPa 0,0 l/m 7,3 km/h (2 Bft) S-SW 208 0 min 0,000 mm 0,0 UV-I 0 W/m 5,8 C 10,5 C 11,3 km/h (2 Bft) 95,74 %
29.03.2017 22:26 11,2 C 70 % 1024,3 hPa 0,0 l/m 7,1 km/h (2 Bft) S-SW 199 0 min 0,000 mm 0,0 UV-I 0 W/m 5,9 C 10,7 C 9,7 km/h (2 Bft) 97,56 %
29.03.2017 22:28 11,2 C 70 % 1024,3 hPa 0,0 l/m 7,0 km/h (2 Bft) S-SW 206 0 min 0,000 mm 0,0 UV-I 0 W/m 5,9 C 10,8 C 12,9 km/h (3 Bft) 92,00 %
29.03.2017 22:30 11,3 C 69 % 1024,3 hPa 0,0 l/m 7,3 km/h (2 Bft) S-SW 211 0 min 0,000 mm 0,0 UV-I 0 W/m 5,8 C 10,7 C 9,7 km/h (2 Bft) 95,74 %
29.03.2017 22:32 11,4 C 69 % 1024,3 hPa 0,0 l/m 7,8 km/h (2 Bft) S-SW 211 0 min 0,000 mm 0,0 UV-I 0 W/m 5,9 C 10,5 C 11,3 km/h (2 Bft) 97,56 %
29.03.2017 22:34 11,4 C 69 % 1024,3 hPa 0,0 l/m 7,3 km/h (2 Bft) S-SW 206 0 min 0,000 mm 0,0 UV-I 0 W/m 5,9 C 10,8 C 9,7 km/h (2 Bft) 98,28 %
29.03.2017 22:36 11,3 C 69 % 1024,4 hPa 0,0 l/m 7,0 km/h (2 Bft) SW 220 0 min 0,000 mm 0,0 UV-I 0 W/m 5,8 C 10,9 C 9,7 km/h (2 Bft) 97,37 %
29.03.2017 22:38 11,3 C 69 % 1024,3 hPa 0,0 l/m 7,8 km/h (2 Bft) S-SW 209 0 min 0,000 mm 0,0 UV-I 0 W/m 5,8 C 10,3 C 11,3 km/h (2 Bft) 97,56 %
29.03.2017 22:40 11,2 C 70 % 1024,4 hPa 0,0 l/m 6,3 km/h (2 Bft) S-SW 213 0 min 0,000 mm 0,0 UV-I 0 W/m 5,9 C 11,2 C 9,7 km/h (2 Bft) 96,77 %
29.03.2017 22:42 11,2 C 70 % 1024,4 hPa 0,0 l/m 6,4 km/h (2 Bft) SW 215 0 min 0,000 mm 0,0 UV-I 0 W/m 5,9 C 11,2 C 9,7 km/h (2 Bft) 95,12 %
29.03.2017 22:44 11,2 C 70 % 1024,4 hPa 0,0 l/m 7,3 km/h (2 Bft) SW 219 0 min 0,000 mm 0,0 UV-I 0 W/m 5,9 C 10,6 C 9,7 km/h (2 Bft) 97,67 %
29.03.2017 22:46 11,2 C 70 % 1024,4 hPa 0,0 l/m 5,6 km/h (1 Bft) S-SW 207 0 min 0,000 mm 0,0 UV-I 0 W/m 5,9 C 11,2 C 8,0 km/h (2 Bft) 94,34 %
29.03.2017 22:48 11,1 C 70 % 1024,4 hPa 0,0 l/m 6,5 km/h (2 Bft) SW 215 0 min 0,000 mm 0,0 UV-I 0 W/m 5,8 C 11,1 C 9,7 km/h (2 Bft) 97,62 %
29.03.2017 22:50 11,0 C 71 % 1024,4 hPa 0,0 l/m 5,1 km/h (1 Bft) S-SW 213 0 min 0,000 mm 0,0 UV-I 0 W/m 5,9 C 11,0 C 6,4 km/h (2 Bft) 92,00 %
29.03.2017 22:52 10,9 C 71 % 1024,4 hPa 0,0 l/m 7,3 km/h (2 Bft) SW 215 0 min 0,000 mm 0,0 UV-I 0 W/m 5,9 C 10,3 C 11,3 km/h (2 Bft) 96,15 %
29.03.2017 22:54 10,8 C 71 % 1024,4 hPa 0,0 l/m 6,8 km/h (2 Bft) SW 218 0 min 0,000 mm 0,0 UV-I 0 W/m 5,8 C 10,5 C 11,3 km/h (2 Bft) 94,87 %
29.03.2017 22:56 10,8 C 72 % 1024,4 hPa 0,0 l/m 7,0 km/h (2 Bft) S-SW 213 0 min 0,000 mm 0,0 UV-I 0 W/m 6,0 C 10,4 C 11,3 km/h (2 Bft) 95,12 %
29.03.2017 22:59 10,9 C 72 % 1024,5 hPa 0,0 l/m 7,9 km/h (2 Bft) S-SW 200 0 min 0,000 mm 0,0 UV-I 0 W/m 6,1 C 9,9 C 9,7 km/h (2 Bft) 94,94 %
29.03.2017 23:00 10,9 C 71 % 1024,5 hPa 0,0 l/m 7,9 km/h (2 Bft) SW 225 0 min 0,000 mm 0,0 UV-I 0 W/m 5,9 C 9,9 C 11,3 km/h (2 Bft) 95,83 %
29.03.2017 23:02 11,0 C 71 % 1024,5 hPa 0,0 l/m 8,5 km/h (2 Bft) S-SW 199 0 min 0,026 mm 0,0 UV-I 0 W/m 5,9 C 9,6 C 12,9 km/h (3 Bft) 100,00 %
29.03.2017 23:04 11,1 C 71 % 1024,4 hPa 0,0 l/m 8,7 km/h (2 Bft) S-SW 200 0 min 0,000 mm 0,0 UV-I 0 W/m 6,0 C 9,6 C 12,9 km/h (3 Bft) 97,73 %
29.03.2017 23:06 11,1 C 71 % 1024,5 hPa 0,0 l/m 8,0 km/h (2 Bft) W-SW 242 0 min 0,000 mm 0,0 UV-I 0 W/m 6,0 C 10,0 C 11,3 km/h (2 Bft) 98,21 %
29.03.2017 23:08 11,1 C 71 % 1024,5 hPa 0,0 l/m 8,0 km/h (2 Bft) SW 225 0 min 0,000 mm 0,0 UV-I 0 W/m 6,0 C 10,0 C 12,9 km/h (3 Bft) 100,00 %
29.03.2017 23:10 11,2 C 71 % 1024,5 hPa 0,0 l/m 8,1 km/h (2 Bft) SW 214 0 min 0,000 mm 0,0 UV-I 0 W/m 6,1 C 10,0 C 12,9 km/h (3 Bft) 97,73 %
29.03.2017 23:12 11,2 C 71 % 1024,6 hPa 0,0 l/m 7,1 km/h (2 Bft) W-SW 244 0 min 0,000 mm 0,0 UV-I 0 W/m 6,1 C 10,7 C 12,9 km/h (3 Bft) 100,00 %
29.03.2017 23:14 11,2 C 71 % 1024,6 hPa 0,0 l/m 9,1 km/h (2 Bft) SW 218 0 min 0,000 mm 0,0 UV-I 0 W/m 6,1 C 9,4 C 19,3 km/h (3 Bft) 98,31 %
29.03.2017 23:16 11,1 C 71 % 1024,6 hPa 0,0 l/m 11,0 km/h (2 Bft) SW 227 0 min 0,000 mm 0,0 UV-I 0 W/m 6,0 C 8,3 C 14,5 km/h (3 Bft) 95,74 %
29.03.2017 23:18 11,1 C 72 % 1024,7 hPa 0,0 l/m 9,8 km/h (2 Bft) SW 216 0 min 0,000 mm 0,0 UV-I 0 W/m 6,2 C 8,9 C 16,1 km/h (3 Bft) 100,00 %
29.03.2017 23:20 11,1 C 72 % 1024,7 hPa 0,0 l/m 10,2 km/h (2 Bft) SW 225 0 min 0,000 mm 0,0 UV-I 0 W/m 6,2 C 8,7 C 14,5 km/h (3 Bft) 95,45 %
29.03.2017 23:22 11,0 C 72 % 1024,7 hPa 0,0 l/m 10,8 km/h (2 Bft) SW 227 0 min 0,000 mm 0,0 UV-I 0 W/m 6,2 C 8,3 C 16,1 km/h (3 Bft) 96,00 %
29.03.2017 23:24 11,0 C 72 % 1024,7 hPa 0,0 l/m 8,8 km/h (2 Bft) SW 215 0 min 0,000 mm 0,0 UV-I 0 W/m 6,2 C 9,4 C 14,5 km/h (3 Bft) 95,74 %
29.03.2017 23:26 11,0 C 72 % 1024,7 hPa 0,0 l/m 7,2 km/h (2 Bft) SW 221 0 min 0,000 mm 0,0 UV-I 0 W/m 6,2 C 10,4 C 9,7 km/h (2 Bft) 97,62 %
29.03.2017 23:28 11,1 C 72 % 1024,7 hPa 0,0 l/m 8,9 km/h (2 Bft) SW 223 0 min 0,000 mm 0,0 UV-I 0 W/m 6,2 C 9,4 C 12,9 km/h (3 Bft) 96,00 %
29.03.2017 23:30 11,1 C 72 % 1024,7 hPa 0,0 l/m 8,9 km/h (2 Bft) W-SW 255 0 min 0,000 mm 0,0 UV-I 0 W/m 6,2 C 9,4 C 14,5 km/h (3 Bft) 96,00 %
29.03.2017 23:32 11,2 C 72 % 1024,7 hPa 0,0 l/m 8,9 km/h (2 Bft) W-SW 246 0 min 0,000 mm 0,0 UV-I 0 W/m 6,3 C 9,6 C 12,9 km/h (3 Bft) 94,29 %
29.03.2017 23:34 11,2 C 72 % 1024,7 hPa 0,0 l/m 8,3 km/h (2 Bft) SW 217 0 min 0,000 mm 0,0 UV-I 0 W/m 6,3 C 9,9 C 12,9 km/h (3 Bft) 96,77 %
29.03.2017 23:36 11,2 C 72 % 1024,7 hPa 0,0 l/m 8,4 km/h (2 Bft) SW 233 0 min 0,000 mm 0,0 UV-I 0 W/m 6,3 C 9,9 C 14,5 km/h (3 Bft) 95,74 %
29.03.2017 23:38 11,2 C 72 % 1024,7 hPa 0,0 l/m 12,1 km/h (2 Bft) W-SW 250 0 min 0,000 mm 0,0 UV-I 0 W/m 6,3 C 7,8 C 19,3 km/h (3 Bft) 100,00 %
29.03.2017 23:40 11,1 C 72 % 1024,7 hPa 0,0 l/m 10,0 km/h (2 Bft) SW 232 0 min 0,000 mm 0,0 UV-I 0 W/m 6,2 C 8,8 C 14,5 km/h (3 Bft) 90,57 %
29.03.2017 23:42 11,1 C 72 % 1024,8 hPa 0,0 l/m 9,3 km/h (2 Bft) W-SW 242 0 min 0,000 mm 0,0 UV-I 0 W/m 6,2 C 9,2 C 12,9 km/h (3 Bft) 93,62 %
29.03.2017 23:44 11,2 C 72 % 1024,8 hPa 0,0 l/m 7,5 km/h (2 Bft) SW 219 0 min 0,000 mm 0,0 UV-I 0 W/m 6,3 C 10,4 C 9,7 km/h (2 Bft) 97,56 %
29.03.2017 23:46 11,1 C 72 % 1024,8 hPa 0,0 l/m 7,8 km/h (2 Bft) SW 234 0 min 0,000 mm 0,0 UV-I 0 W/m 6,2 C 10,1 C 14,5 km/h (3 Bft) 96,23 %
29.03.2017 23:48 11,1 C 72 % 1024,8 hPa 0,0 l/m 7,4 km/h (2 Bft) SW 229 0 min 0,000 mm 0,0 UV-I 0 W/m 6,2 C 10,4 C 11,3 km/h (2 Bft) 97,37 %
29.03.2017 23:50 11,1 C 73 % 1024,9 hPa 0,0 l/m 8,6 km/h (2 Bft) SW 228 0 min 0,000 mm 0,0 UV-I 0 W/m 6,4 C 9,6 C 14,5 km/h (3 Bft) 98,00 %
29.03.2017 23:52 11,1 C 73 % 1024,9 hPa 0,0 l/m 8,2 km/h (2 Bft) S-SW 210 0 min 0,000 mm 0,0 UV-I 0 W/m 6,4 C 9,9 C 11,3 km/h (2 Bft) 96,00 %
29.03.2017 23:54 11,0 C 73 % 1024,9 hPa 0,0 l/m 8,8 km/h (2 Bft) S-SW 213 0 min 0,000 mm 0,0 UV-I 0 W/m 6,4 C 9,4 C 12,9 km/h (3 Bft) 95,12 %
29.03.2017 23:56 10,9 C 73 % 1024,9 hPa 0,0 l/m 8,6 km/h (2 Bft) W-SW 239 0 min 0,000 mm 0,0 UV-I 0 W/m 6,3 C 9,4 C 12,9 km/h (3 Bft) 96,00 %
29.03.2017 23:58 10,9 C 73 % 1024,9 hPa 0,0 l/m 10,3 km/h (2 Bft) SW 224 0 min 0,000 mm 0,0 UV-I 0 W/m 6,3 C 8,4 C 14,5 km/h (3 Bft) 98,00 %
_ Min-Zeit 06:28 16:20 17:46 - 03:10 - - - - - - 06:28 01:32 03:10 16:24
Minimum _ 5,6 C 44 % 1022,3 hPa - 0,0 km/h (0 Bft) - - - - - - 2,9 C 5,5 C 0,0 km/h (0 Bft) 87,18 %
_ Max-Zeit 15:30 03:42 10:36 00:01 14:56 - - 17:03 15:00 13:08 13:20 13:40 15:30 14:56 00:01
Maximum _ 19,4 C 84 % 1025,4 hPa 0,0 l/m 22,7 km/h
W (4 Bft)
- - 3 min 0,483 mm 3,0 UV-I 733 W/m 8,7 C 19,4 C 37,0 km/h
W-SW (5 Bft)
100,00 %
Durchschnitt _ 12,6 C 64 % 1024,0 hPa #0,0 l/m 7,6 km/h (2 Bft) W-SW - #10:46 h #3,785 mm 1,9 UV-I 397 W/m 5,7 C 11,6 C 12,5 km/h (3 Bft) 96,99 %